                ,  0.301,  0.397,  0.494,  0.590,  0.687,  0.784,  0.880,  0.977,  1.073,  1.170,  1.267,  1.363,  1.460,  1.556,  1.653,  1.749,  1.846,  1.943,  2.039,  2.136,  2.232,  2.329,  2.426,  2.522,  2.619,  2.715,  2.812,  2.909,  3.005,  3.102,  3.198,  3.295,  3.392,  3.488,  3.585,  3.681,  3.778,  3.875,  3.971,  4.068,  4.164,  4.261,  4.357,  4.454,  4.551,  4.647,  4.744,  4.840,  4.937,  5.034,  5.130,  5.227,  5.323,  5.420,  5.517,  5.613,  5.710,  5.806,  5.903,  6.000,  6.096,  6.193,  6.289,  6.386,  6.483,  6.579,  6.676,  6.772,  6.869,  6.965,  7.062,  7.159,  7.255,  7.352,  7.448,  7.545,  7.642,  7.738,  7.835,  7.931
2014/11/03 00:00,  999.0,  999.0,  999.0,  999.0,  999.0,  999.0,  999.0,  999.0,  999.0,  999.0,  999.0,  999.0,  999.0,   11.2,   16.9,   14.5,   16.5,  999.0,  999.0,  999.0,  999.0,  999.0,  999.0,   22.8,   26.7,  999.0,  999.0,  999.0,  999.0,  999.0,  999.0,  999.0,   15.4,  999.0,  999.0,   15.9,  999.0,  999.0,  999.0,  999.0,   15.6,   16.3,   16.3,   16.6,   15.8,   15.5,   15.9,   17.0,   17.5,  999.0,  999.0,  999.0,  999.0,  999.0,  999.0,   -0.1,    0.2,    0.3,    0.3,   -0.1,   -0.2,    0.1,   -0.1,  999.0,  999.0,    0.2,   -0.1,   -0.2,   -0.3,  999.0,  999.0,  999.0,  999.0,    0.5,  999.0,  999.0,  999.0,  999.0,  999.0,  999.0
2014/11/03 00:10,  999.0,  999.0,   -0.0,    0.2,   -0.0,  999.0,  999.0,  999.0,  999.0,    5.4,   11.9,   12.9,   15.7,   17.7,   16.2,   16.8,   11.1,    7.3,   -0.4,  999.0,   -0.2,    0.1,   -2.0,  999.0,   29.7,  999.0,  999.0,   24.1,   18.8,   22.6,   16.8,   15.8,   11.2,   16.0,   17.4,   16.4,   16.0,   15.3,   14.2,   14.0,   13.5,   14.2,   15.0,   15.9,   16.7,   16.8,   18.7,   19.0,   19.5,   19.7,   21.4,   23.2,   22.7,   23.8,   20.1,  999.0,  999.0,    8.4,    2.4,   -0.1,   -0.1,    0.3,   -0.0,   -0.1,   -0.1,    0.1,   -0.1,   -0.2,   -0.0,    0.1,   -0.3,   -0.0,    0.1,   -0.1,  999.0,  999.0,  999.0,  999.0,  999.0,  999.0
2014/11/03 00:20,  999.0,  999.0,  -12.4,  999.0,  999.0,  999.0,  999.0,  999.0,    0.5,   -3.2,  999.0,    4.7,    9.3,    9.6,    8.4,   16.0,  -11.3,   10.5,  999.0,  999.0,  -32.0,  -33.2,  -37.3,  999.0,  999.0,    7.5,   11.7,    9.1,    9.9,   15.5,   16.0,   14.5,   13.6,   11.8,   13.1,   13.8,   12.2,   11.7,   10.9,   10.4,   11.2,   11.3,   12.8,   12.5,   12.4,   11.1,   11.0,   11.9,   11.6,   15.5,   14.8,   20.0,   16.7,  999.0,  999.0,   10.8,    6.3,   -0.0,    0.1,    0.2,   -0.1,    0.1,   -0.1,    0.2,    0.1,   -0.1,    0.0,   -0.0,    0.0,   -0.0,  999.0,    0.2,   -0.0,  999.0,  999.0,  999.0,  999.0,  999.0,  999.0,  999.0
2014/11/03 00:30,  999.0,  999.0,  999.0,   12.9,   11.7,   14.3,  999.0,   15.8,  999.0,   12.4,  999.0,  999.0,   13.6,   22.6,  999.0,   21.5,   19.0,  999.0,   22.6,  -10.8,   -7.4,  999.0,   19.8,   19.8,   19.7,   17.1,   16.2,   16.1,   17.8,   15.8,   15.3,   14.6,    8.8,   13.8,   14.1,   19.2,   16.7,   13.3,   13.1,   12.8,   10.8,   12.1,   14.7,   13.8,   13.1,   13.9,   15.1,   14.4,   16.8,   14.5,   18.8,  999.0,   13.4,  999.0,  999.0,    0.4,    0.3,    0.0,   -0.0,    0.1,   -0.1,   -0.1,    0.1,   -0.1,   -0.0,    0.0,    0.0,   -0.1,    0.0,   -0.2,    0.0,    0.0,    0.3,  999.0,  999.0,  999.0,  999.0,  999.0,  999.0,  999.0
2014/11/03 00:40,  999.0,  999.0,  999.0,  999.0,  999.0,  999.0,  999.0,  999.0,  999.0,  999.0,  999.0,  999.0,  999.0,  999.0,  999.0,  999.0,  999.0,  999.0,    9.7,    9.3,   10.7,   11.0,  999.0,  999.0,   10.6,  999.0,   19.7,   16.0,   17.5,   16.6,  999.0,   14.0,  999.0,   14.4,   10.7,  999.0,    9.1,   11.3,  999.0,  999.0,  999.0,  999.0,    3.0,    3.5,    4.3,    4.5,    5.4,    5.9,    6.2,    0.1,    0.3,    0.6,   -0.2,   -0.0,    0.1,   -0.0,    0.1,    0.1,   -0.1,   -0.1,    0.2,   -0.1,    0.0,  999.0,    0.2,    0.0,    0.1,    0.0,   -0.1,    0.3,  999.0,    0.4,    0.0,  999.0,  999.0,  999.0,  999.0,  999.0,  999.0,  999.0
2014/11/03 00:50,  999.0,    0.1,   -0.7,    0.3,    0.0,    0.4,   -0.1,   -0.2,    0.1,    0.2,    0.2,    0.3,    0.4,    0.1,    0.1,    0.0,    0.5,    0.1,    1.0,    1.0,    1.2,    1.3,   -0.0,    0.3,    0.2,    0.2,    0.2,    0.2,   -0.1,   -0.5,   -0.9,   -1.9,   -1.6,  999.0,  999.0,  999.0,  999.0,  999.0,  999.0,   -3.5,   -0.3,   -0.5,   -0.1,    1.3,    0.5,   -0.3,   -0.0,    0.6,    0.0,    0.9,    0.4,    0.2,   -0.1,    0.0,   -0.1,   -0.0,   -0.0,    0.2,   -0.0,    0.1,    0.0,   -0.1,    0.0,   -0.2,   -0.1,   -0.1,    0.1,    0.1,   -0.4,   -0.0,  999.0,  999.0,   -0.1,   -0.2,  999.0,  999.0,  999.0,  999.0,  999.0,  999.0
2014/11/03 01:00,  999.0,    0.2,   -0.1,    0.4,    0.2,    0.4,    0.3,    0.0,    0.2,   -0.1,   -0.0,   -0.1,    0.0,    0.1,   -0.1,   -0.0,   -0.1,   -0.2,   -0.1,    0.1,    0.2,    0.1,    0.6,   -0.1,    0.1,    0.5,    0.1,   -0.3,   -0.8,   -0.7,   -1.7,   -0.0,   -0.7,    1.0,  999.0,  999.0,  999.0,   -1.1,   -3.6,   -4.7,   -2.8,   -1.2,    0.1,   -0.2,   -0.4,    0.2,    0.3,    0.2,    0.1,    0.3,    0.1,   -0.1,    0.0,    0.0,    0.1,    0.1,    0.1,   -0.0,   -0.0,   -0.0,   -0.1,   -0.0,   -0.0,    0.0,   -0.1,    0.1,    0.0,   -0.1,    0.0,   -0.1,   -0.0,   -0.2,  999.0,  999.0,  999.0,  999.0,  999.0,  999.0,  999.0,  999.0
2014/11/03 01:10,  999.0,  999.0,   -0.1,    0.0,    0.0,    0.0,    0.0,    0.0,    0.0,    0.0,    0.0,    0.1,    0.0,    0.0,   -0.0,   -0.1,   -0.1,    0.0,    0.0,    0.1,   -0.0,    0.1,    0.2,    0.0,   -0.1,    0.1,    0.1,   -0.2,   -0.0,   -0.3,   -0.3,   -0.1,  999.0,  999.0,  999.0,  999.0,    0.4,    0.3,   -1.0,   -0.6,   -0.1,   -0.2,    0.2,   -0.3,   -0.5,   -0.2,   -0.2,   -0.0,    0.1,    0.1,   -0.0,   -0.0,    0.1,    0.1,   -0.0,   -0.1,   -0.1,   -0.0,   -0.0,    0.0,   -0.1,   -0.1,    0.1,   -0.0,    0.0,    0.0,   -0.1,   -0.1,   -0.1,   -0.1,    0.0,    0.0,    0.0,  999.0,  999.0,  999.0,  999.0,  999.0,  999.0,  999.0
2014/11/03 01:20,  999.0,  999.0,   -0.1,    1.6,   -0.0,   -0.0,   -0.0,   -0.0,    3.4,    4.6,    2.9,    4.3,    3.8,    0.0,    0.1,   -0.0,   -0.0,   -0.1,   -0.0,    0.1,    0.1,    0.0,    0.3,   -0.1,   -0.0,   -0.1,    0.1,    0.0,    0.1,   -0.0,    0.0,   -0.0,    0.0,   -0.1,   -0.1,   -0.2,   -0.3,   -0.2,   -0.1,   -0.0,   -0.1,   -0.0,    0.0,    0.0,   -0.1,   -0.0,    0.0,    0.1,    0.0,    0.1,    0.1,   -0.0,    0.0,   -0.0,    0.1,   -0.1,    0.0,    0.1,    0.1,    0.2,   -0.2,    0.1,    0.0,    0.0,   -0.0,    0.0,   -0.0,   -0.0,    0.0,    0.0,    0.2,   -0.1,    0.1,   -0.4,  999.0,  999.0,  999.0,  999.0,  999.0,  999.0
2014/11/03 01:30,  999.0,  999.0,  999.0,  999.0,    0.1,   -0.1,   -0.2,   -0.2,   -0.2,   -0.5,  999.0,  999.0,    0.0,    0.1,  999.0,  999.0,    0.1,    0.1,   -0.1,   -0.1,   -0.1,   -0.1,   -0.1,   -0.0,   -0.0,   -0.0,    0.1,   -0.0,   -0.1,   -0.1,    0.0,   -0.0,    0.1,    0.2,   -0.3,   -0.8,   -0.5,   -0.6,   -0.5,   -0.2,   -0.5,   -0.2,   -0.2,   -0.1,    0.0,   -0.0,   -0.0,    0.0,   -0.0,   -0.0,    0.0,   -0.0,   -0.1,   -0.1,   -0.1,   -0.1,    0.1,    0.2,    0.0,    0.1,    0.1,   -0.0,   -0.0,    0.1,   -0.1,   -0.0,   -0.0,   -0.1,   -0.0,    0.1,   -0.1,   -0.0,  999.0,    0.1,    0.2,  999.0,  999.0,  999.0,  999.0,  999.0
2014/11/03 01:40,  999.0,  999.0,   -0.5,   -0.2,   -0.1,   -0.1,    0.1,   -0.1,   -0.2,   -0.1,    0.5,    0.5,    0.3,   -0.2,    0.1,   -0.2,  999.0,   -0.9,   -0.9,   -0.4,   -0.2,    0.1,   -0.0,   -0.2,   -0.1,    0.1,    0.0,   -0.2,   -0.4,   -0.6,   -0.2,  999.0,    0.1,    0.0,  999.0,  999.0,   -3.5,  999.0,   -1.7,   -1.3,   -0.4,   -0.1,   -0.1,    0.1,    0.0,    0.1,    0.0,   -0.1,   -0.1,    0.1,    0.1,    0.1,    0.1,    0.0,    0.1,   -0.1,    0.1,    0.1,    0.0,   -0.0,   -0.0,    0.0,   -0.1,    0.1,    0.1,   -0.1,    0.0,   -0.0,    0.0,   -0.1,    0.0,   -0.4,   -0.1,   -0.1,  999.0,  999.0,  999.0,  999.0,  999.0,  999.0
2014/11/03 01:50,  999.0,  999.0,    0.1,   -0.0,   -0.5,   -0.4,   -0.0,    0.3,   -0.2,  999.0,    0.2,    0.5,    0.0,    0.1,   -0.1,   -0.2,    0.3,    0.3,    0.0,   -0.2,   -0.0,   -0.1,    0.1,   -0.1,    0.0,   -0.1,   -0.3,   -0.3,    1.5,    0.6,   -0.8,    1.5,   -0.1,   -0.3,   -0.2,   -0.6,   -0.8,   -0.6,   -0.4,   -0.0,   -0.1,   -0.0,    0.0,   -0.1,    0.0,    0.1,    0.1,    0.2,    0.1,   -0.0,   -0.1,   -0.1,   -0.0,   -0.1,    0.0,   -0.0,    0.0,   -0.1,   -0.1,   -0.0,    0.1,    0.1,   -0.0,    0.0,    0.1,    0.1,   -0.0,    0.1,    0.1,   -0.1,  999.0,  999.0,    0.1,    0.2,    0.1,  999.0,  999.0,  999.0,  999.0,  999.0
2014/11/03 02:00,  999.0,  999.0,   -0.0,    0.0,    0.2,   -0.1,    0.1,   -0.1,    0.0,   -0.0,    0.2,    0.1,    0.1,    0.1,    0.0,    0.0,   -0.0,   -0.0,   -0.0,    0.0,   -0.1,    0.0,    0.1,    0.1,   -0.0,    0.1,    0.0,    0.2,    0.0,    0.0,    0.0,   -0.1,    0.1,   -0.1,    0.0,   -0.3,   -0.0,   -0.0,   -0.1,   -0.1,   -0.1,   -0.1,   -0.1,    0.0,    0.0,   -0.0,    0.0,    0.2,    0.2,    0.3,    0.1,    0.2,    0.1,    0.0,    0.0,    0.0,   -0.0,   -0.0,   -0.0,    0.1,   -0.1,   -0.0,    0.0,    0.0,    0.0,   -0.1,    0.0,    0.1,    0.0,   -0.0,    0.0,   -0.0,    0.0,   -0.3,   -0.0,  999.0,  999.0,  999.0,  999.0,  999.0
2014/11/03 02:10,  999.0,   -0.0,    0.5,    0.2,   -0.1,   -0.4,   -0.1,    0.1,  999.0,   -0.0,    0.0,   -0.1,   -0.1,    0.2,    0.1,    0.0,   -0.1,    0.0,    0.0,   -0.0,   -0.0,    0.1,   -0.0,   -0.1,   -0.2,   -0.0,    0.1,    0.2,   -0.1,    0.0,    0.1,    0.1,    0.1,    0.0,    0.0,    0.1,    0.2,    0.0,    0.0,   -0.1,   -0.1,   -0.1,    0.0,   -0.0,    0.1,    0.1,    0.1,    0.2,    0.1,    0.1,   -0.1,   -0.1,   -0.1,    0.1,   -0.1,   -0.1,    0.1,   -0.0,   -0.0,    0.1,    0.0,    0.1,    0.1,    0.0,    0.1,    0.0,    0.0,    0.0,   -0.0,    0.1,    0.1,   -0.2,    0.1,    0.0,    0.1,  999.0,  999.0,  999.0,  999.0,  999.0
2014/11/03 02:20,  999.0,  999.0,   -0.2,    0.2,    0.4,    0.3,   -0.0,    0.2,    0.2,    0.1,    0.6,    0.1,    0.1,   -0.2,   -0.0,   -0.1,   -0.1,   -0.1,   -0.0,    0.1,   -0.1,   -0.1,   -0.1,   -0.0,   -0.1,    0.2,   -0.1,   -0.1,    0.0,    0.0,    0.1,    0.1,    0.0,   -0.1,   -0.4,   -0.3,   -0.2,    0.1,    0.0,   -0.2,   -0.2,   -0.1,   -0.0,   -0.1,    0.0,   -0.2,   -0.1,    0.1,    0.1,    0.0,    0.0,   -0.0,    0.0,    0.0,   -0.1,   -0.1,   -0.0,   -0.0,    0.0,   -0.2,   -0.1,    0.0,   -0.1,   -0.0,   -0.1,   -0.1,   -0.0,   -0.1,   -0.1,   -0.1,    0.1,    0.2,    0.1,    0.1,  999.0,  999.0,  999.0,  999.0,  999.0,  999.0
2014/11/03 02:30,  999.0,  999.0,   -0.2,    0.2,    0.3,    0.2,    0.1,   -0.1,    0.1,  999.0,  999.0,   -0.1,   -0.1,   -0.1,  999.0,    0.0,   -0.1,   -0.2,    0.4,    0.9,    0.2,   -0.3,   -0.1,   -0.4,    0.0,    0.0,    0.2,   -0.1,   -0.1,   -0.1,    0.1,    0.0,    0.0,    0.0,    0.1,    0.2,   -0.0,    0.1,    0.1,    0.0,   -0.1,   -0.2,   -0.1,   -0.1,   -0.0,    0.0,   -0.0,    0.0,    0.0,    0.1,    0.0,    0.0,   -0.1,   -0.1,   -0.0,   -0.0,    0.0,    0.0,    0.0,    0.0,    0.0,   -0.0,   -0.1,   -0.1,   -0.1,    0.0,    0.1,   -0.0,   -0.1,    0.2,   -0.2,    0.2,    0.1,    0.1,    0.1,  999.0,  999.0,  999.0,  999.0,  999.0
2014/11/03 02:40,  999.0,  999.0,   -0.0,   -0.1,   -0.1,   -0.1,    0.0,   -0.2,    0.1,   -0.0,    0.0,   -0.0,    0.0,    0.2,    0.2,    0.3,   -0.0,    0.1,    0.2,    0.0,    0.2,    0.3,    0.5,    0.2,    0.3,   -0.1,    0.3,    0.1,   -0.1,   -0.0,   -0.0,   -0.0,    0.1,    0.5,    1.1,    0.4,    0.2,    0.0,    0.1,   -0.1,   -0.0,    0.0,   -0.1,   -0.1,   -0.2,   -0.2,   -0.2,   -0.0,    0.0,    0.2,   -0.1,    0.1,    0.1,    0.0,    0.1,    0.0,    0.1,   -0.0,   -0.1,    0.0,   -0.0,    0.0,   -0.1,   -0.1,    0.0,    0.1,    0.0,   -0.0,   -0.0,   -0.1,    0.1,   -0.2,    0.2,   -0.1,  999.0,  999.0,  999.0,  999.0,  999.0,  999.0
2014/11/03 02:50,  999.0,  999.0,    1.8,    0.1,    0.0,    0.4,    0.1,    0.0,    0.1,    0.1,    0.0,    0.1,    0.5,    0.3,    0.5,    0.5,    0.4,    0.2,    0.2,    0.2,    0.2,    0.2,    0.2,    0.4,    0.0,    0.0,    0.2,   -0.1,    0.1,    0.0,   -0.0,    0.0,   -0.1,   -0.0,   -0.1,   -0.1,   -0.1,   -0.0,   -0.0,    0.0,   -0.1,   -0.0,    0.0,    0.1,    0.1,    0.4,    0.5,    0.6,    0.5,    0.4,   -0.0,    0.0,   -0.1,   -0.1,   -0.0,    0.1,    0.1,   -0.0,   -0.1,    0.1,   -0.0,   -0.0,    0.0,    0.1,   -0.0,    0.1,    0.1,   -0.1,    0.1,    0.0,    0.1,   -0.0,   -0.0,    0.1,   -0.3,  999.0,  999.0,  999.0,  999.0,  999.0
2014/11/03 03:00,  999.0,   -0.0,    0.1,    0.0,    0.0,    0.1,    0.6,    0.3,    0.0,   -0.0,   -0.1,   -0.0,   -0.0,   -0.0,    0.1,    0.0,    0.1,    0.1,    0.1,    0.1,    0.1,    0.1,    0.3,    0.1,    0.3,    0.1,   -0.1,   -0.0,   -0.1,    0.2,   -0.1,   -0.0,    0.0,    0.0,    0.0,    0.0,   -0.1,   -0.0,   -0.1,   -0.0,    0.1,    0.0,   -0.0,   -0.0,   -0.1,    0.2,    0.3,    0.2,    0.1,    0.1,   -0.1,   -0.0,    0.0,    0.1,    0.0,   -0.1,    0.1,   -0.0,    0.1,   -0.0,    0.0,   -0.1,   -0.1,   -0.0,   -0.0,   -0.0,   -0.0,   -0.0,   -0.0,    0.1,   -0.0,   -0.1,    0.0,   -0.2,  999.0,  999.0,  999.0,  999.0,  999.0,  999.0
2014/11/03 03:10,  999.0,   -0.2,   -0.3,   -0.2,    0.2,   -0.1,   -0.1,    0.6,   -0.1,    0.3,    0.2,    0.4,    0.4,    0.3,    0.1,   -0.0,   -0.1,   -0.1,    0.0,    0.2,    0.2,    0.3,    0.2,    0.1,    0.1,    0.1,   -0.2,   -0.1,    0.1,    0.1,   -0.1,    0.0,   -0.0,   -0.2,    0.1,   -0.0,    0.0,   -0.1,    0.0,    0.2,   -0.0,    0.2,    0.7,    0.5,    0.4,    0.6,    0.1,   -0.0,   -0.1,   -0.1,   -0.0,   -0.1,   -0.0,    0.0,    0.0,   -0.0,   -0.0,    0.1,    0.1,   -0.0,    0.0,   -0.0,   -0.0,    0.1,   -0.0,    0.0,    0.0,   -0.0,    0.0,    0.1,    0.1,   -0.3,  999.0,  999.0,  999.0,  999.0,  999.0,  999.0,  999.0,  999.0
2014/11/03 03:20,  999.0,   -0.7,   -0.3,    0.2,    0.0,    0.3,    0.4,    0.3,    0.2,    0.2,    0.4,    0.4,    1.0,    1.2,    0.8,    0.6,    0.5,    0.2,    0.3,    0.3,    0.3,    0.5,    0.9,    0.4,    0.1,    0.1,    0.2,    0.2,   -0.0,   -0.1,    0.0,    0.0,   -0.2,    0.1,    0.3,    0.1,    0.1,   -0.1,    0.1,    0.4,   -0.3,   -0.4,  999.0,    0.0,    0.9,    0.6,    0.5,    0.2,    0.2,    0.2,   -0.0,    0.2,    0.0,    0.0,   -0.1,   -0.1,    0.1,   -0.0,    0.0,   -0.1,   -0.1,   -0.2,    0.0,   -0.0,   -0.2,   -0.0,    0.3,    0.1,   -0.1,   -0.0,   -0.2,    0.0,   -0.1,   -0.2,   -0.0,  999.0,  999.0,  999.0,  999.0,  999.0
2014/11/03 03:30,  999.0,    0.1,    0.1,   -0.2,   -0.3,    0.1,    0.3,    0.2,    0.1,    0.2,    0.2,    0.3,    0.1,    0.2,    0.1,    0.2,    0.2,    0.0,    0.1,    0.2,    0.2,    0.5,    0.4,    0.4,    0.3,    0.3,    0.1,   -0.0,   -0.0,    0.1,   -0.1,    0.0,    0.0,   -0.1,    0.0,   -0.2,    0.1,    0.6,    0.3,    0.4,   -0.1,   -0.1,   -0.1,    0.0,    0.2,    0.4,    0.6,    0.4,    0.4,    0.4,    0.2,    0.1,    0.0,   -0.1,    0.2,    0.1,   -0.1,    0.1,   -0.0,   -0.1,   -0.1,   -0.1,   -0.1,    0.1,   -0.2,    0.1,    0.3,   -0.1,   -0.1,  999.0,    0.9,    0.3,   -0.0,   -0.2,    0.1,  999.0,  999.0,  999.0,  999.0,  999.0
2014/11/03 03:40,  999.0,    0.4,   -0.1,    0.1,    0.4,   -0.0,    0.2,    0.1,   -0.2,   -0.4,   -0.1,    0.5,    0.2,    0.3,    0.2,    0.6,    0.7,    0.7,    0.4,    0.2,    0.2,    0.2,    0.3,    0.2,    0.1,    0.2,    0.1,    0.1,    0.5,    0.2,    0.4,    0.2,    0.2,   -0.1,   -0.3,    0.9,    1.2,    2.2,    0.0,    1.6,    1.1,    1.1,    0.9,    1.1,    1.1,    0.4,    0.6,    0.7,    0.8,    0.2,    0.4,    0.3,    0.1,    0.1,   -0.0,    0.0,   -0.0,    0.0,   -0.0,   -0.1,    0.2,    0.1,   -0.1,    0.0,    0.0,    0.1,    0.1,   -0.0,    0.3,    0.4,    0.3,   -0.3,   -0.1,    0.2,   -0.2,  999.0,  999.0,  999.0,  999.0,  999.0
2014/11/03 03:50,  999.0,    0.1,   -0.2,    0.1,   -0.0,   -0.4,   -0.1,    0.0,   -0.3,    0.5,    0.1,   -0.0,    0.2,    0.0,    0.1,    0.1,   -0.1,    0.2,   -0.1,    0.1,    0.0,    0.2,    0.1,    0.1,    0.3,    0.1,    0.0,   -0.1,    0.1,   -0.3,   -0.4,    0.1,    0.3,    0.4,    0.6,    0.3,  999.0,    0.3,    0.1,    0.4,    0.9,   -0.1,  999.0,    0.7,    0.9,    1.8,    0.8,    0.5,    0.3,    0.0,    0.2,    0.1,   -0.0,    0.1,   -0.0,   -0.2,    0.0,    0.1,   -0.0,   -0.0,    0.0,   -0.0,    0.1,    0.0,   -0.1,   -0.1,    0.1,    0.1,    0.1,   -0.1,    0.0,   -0.2,  999.0,  999.0,  999.0,  999.0,  999.0,  999.0,  999.0,  999.0
2014/11/03 04:00,  999.0,    0.1,   -0.1,   -0.1,   -0.1,    0.1,    0.2,    0.0,   -0.1,   -0.1,   -0.1,    0.1,    0.0,   -0.2,   -0.1,   -0.1,   -0.1,   -0.1,    0.1,    0.2,    0.1,    0.2,    0.3,    0.2,    0.1,   -0.0,    0.2,    0.2,    0.1,    0.2,    0.1,   -0.1,    0.0,    0.2,    0.0,   -0.1,    0.2,    0.2,    0.1,    0.8,    0.3,   -0.5,   -0.5,    0.2,    0.4,    0.2,    0.9,    0.3,    0.2,    0.2,    0.0,    0.1,   -0.1,   -0.0,   -0.1,   -0.1,   -0.1,    0.0,   -0.0,   -0.2,   -0.2,    0.0,   -0.0,    0.1,    0.0,    0.1,    0.0,    0.0,    0.0,    0.1,  999.0,  999.0,   -0.1,   -0.3,  999.0,  999.0,  999.0,  999.0,  999.0,  999.0
2014/11/03 04:10,  999.0,   -0.4,    0.3,    0.3,    0.2,   -0.3,   -0.2,    0.1,    0.3,    0.3,    0.0,    0.1,   -0.1,   -0.2,   -0.2,   -0.1,   -0.0,   -0.2,   -0.1,   -0.1,   -0.0,   -0.0,   -0.0,   -0.1,    0.1,   -0.1,   -0.2,   -0.1,    0.1,    0.0,   -0.2,    0.0,   -0.1,    0.1,   -0.1,   -0.1,   -0.3,    0.6,   -0.7,    0.2,    0.3,    0.4,    0.0,    0.0,   -0.3,    0.2,   -0.7,   -0.1,    0.3,    0.2,    0.3,   -0.2,   -0.1,    0.0,   -0.1,    0.1,    0.2,   -0.0,    0.0,    0.1,    0.1,   -0.0,    0.0,   -0.0,   -0.0,    0.1,    0.2,    0.0,    0.1,    0.2,    0.0,    0.0,   -0.2,   -0.2,    0.2,  999.0,  999.0,  999.0,  999.0,  999.0
2014/11/03 04:20,  999.0,    0.0,    0.4,    0.7,   -0.1,    0.1,    0.3,    0.1,   -0.3,    0.2,    0.3,    0.4,    0.6,    0.2,    0.0,   -0.1,   -0.1,   -0.2,   -0.1,   -0.2,   -0.2,   -0.3,   -0.6,   -0.3,    0.0,    0.1,    0.1,   -0.2,   -0.0,    0.1,    0.1,    0.0,   -0.1,   -0.3,   -0.1,    0.0,    0.2,    0.5,    0.9,    2.2,    0.5,   -0.6,   -0.7,   -2.0,   -2.0,   -0.2,    0.1,    0.6,   -0.1,    0.1,    0.1,    0.0,   -0.0,   -0.1,    0.0,   -0.1,    0.0,    0.0,   -0.1,    0.0,    0.1,   -0.1,   -0.2,   -0.1,   -0.1,    0.1,    0.1,    0.2,    0.0,    0.1,    0.1,    0.0,    0.0,  999.0,   -0.2,  999.0,  999.0,  999.0,  999.0,  999.0
2014/11/03 04:30,  999.0,   -0.0,    0.0,    2.1,  999.0,   -0.3,   -0.2,    0.2,   -0.2,   -0.1,    0.3,    0.3,    0.2,    0.0,   -0.2,   -0.1,   -0.1,   -0.0,   -0.1,   -0.1,   -0.2,   -0.5,   -0.5,    0.1,   -0.1,   -0.1,    0.0,   -0.2,   -0.1,    0.0,    0.1,    0.1,    0.3,    0.2,   -0.4,   -0.5,    0.6,  999.0,  999.0,  999.0,   -1.5,   -0.1,  999.0,   -0.4,    0.3,    0.0,    0.3,    0.0,   -0.2,    0.0,    0.1,    0.1,   -0.0,   -0.1,    0.1,   -0.2,   -0.0,    0.1,    0.1,   -0.0,    0.2,    0.2,    0.1,    0.1,    0.2,   -0.1,   -0.0,   -0.0,   -0.1,   -0.1,   -0.2,   -0.2,    0.1,   -0.2,    0.1,  999.0,  999.0,  999.0,  999.0,  999.0
2014/11/03 04:40,  999.0,  999.0,   -1.6,   -1.3,    0.3,    0.1,   -0.6,   -0.3,   -0.1,   -0.0,   -1.9,   -1.3,   -0.6,   -0.3,   -0.1,   -0.0,   -0.0,    0.2,    0.2,   -0.0,   -0.0,   -0.1,   -0.1,   -0.1,   -0.2,   -0.1,   -0.1,    0.0,   -0.1,    0.0,    0.2,   -0.3,  999.0,    0.7,    2.0,    1.8,    1.7,  999.0,    0.1,   -0.1,    0.1,    0.4,    0.2,    0.0,    0.3,    0.1,   -0.1,   -0.1,   -0.1,   -0.3,   -0.2,    0.1,   -0.1,    0.0,    0.0,    0.0,    0.1,    0.1,    0.1,    0.0,    0.1,   -0.1,    0.1,    0.1,    0.1,   -0.1,    0.1,    0.2,    0.2,    0.0,    0.2,  999.0,    0.0,   -0.1,  999.0,  999.0,  999.0,  999.0,  999.0,  999.0
2014/11/03 04:50,  999.0,  999.0,   -0.2,    0.7,    0.7,   -0.1,    0.3,   -0.3,   -0.6,   -0.8,   -0.6,    0.4,   -0.1,    0.0,   -0.0,   -0.0,    0.0,    0.1,    0.2,    0.1,   -0.0,   -0.1,   -0.2,    0.3,    0.2,    0.6,   -0.3,    0.9,    0.5,    0.6,    0.5,    0.5,    0.2,    0.0,    0.2,    0.2,    0.7,    2.7,    1.6,    0.2,   -0.1,   -0.1,  999.0,    0.1,    0.4,    0.1,   -0.2,   -0.2,    0.2,   -0.1,   -0.1,    0.0,    0.2,    0.1,    0.1,    0.1,    0.0,   -0.0,    0.3,    0.0,   -0.1,   -0.1,   -0.2,   -0.1,   -0.0,   -0.1,   -0.0,   -0.0,   -0.2,   -0.2,   -0.2,    0.1,   -0.2,   -0.1,    0.1,  999.0,  999.0,  999.0,  999.0,  999.0
2014/11/03 05:00,  999.0,   -0.1,    0.2,    0.1,    0.4,    0.2,   -0.1,   -0.4,    0.3,    1.4,    1.9,  999.0,  999.0,    6.4,    8.6,    8.4,    9.9,    9.5,   12.9,  999.0,    9.9,   13.3,    5.1,    5.3,    2.1,    4.5,    4.8,    1.1,  999.0,  999.0,    0.6,  999.0,  999.0,  999.0,  999.0,  999.0,    2.5,    2.0,    1.2,   -0.0,   -0.2,   -0.3,   -0.2,   -0.0,    0.1,    0.3,    0.2,   -0.2,   -0.0,  999.0,   -0.2,    0.2,    0.1,    0.1,    0.1,    0.1,    0.2,    0.1,    0.2,   -0.0,    0.0,   -0.0,   -0.1,   -0.1,   -0.0,    0.1,    0.1,    0.0,   -0.0,    0.1,  999.0,   -0.1,    0.2,   -0.0,    0.0,  999.0,  999.0,  999.0,  999.0,  999.0
2014/11/03 05:10,  999.0,  999.0,  999.0,  999.0,  999.0,  999.0,  999.0,  999.0,  999.0,  999.0,  999.0,  999.0,  999.0,  999.0,  999.0,   15.7,  999.0,  999.0,  999.0,  999.0,  999.0,  999.0,  999.0,  999.0,  999.0,  999.0,    2.4,    0.7,    1.0,    2.2,    0.3,    1.2,  999.0,  999.0,  999.0,    0.9,    1.7,    1.4,    1.1,    0.2,   -0.2,    0.1,   -0.2,    0.2,    0.2,    0.3,    0.1,   -0.2,   -0.2,    0.1,   -0.0,   -0.1,    0.2,    0.1,    0.0,    0.0,    0.0,   -0.1,   -0.1,   -0.2,    0.0,    0.1,   -0.2,   -0.2,   -0.1,    0.1,   -0.0,   -0.1,  999.0,  999.0,   -0.2,  999.0,  999.0,    0.2,    0.2,  999.0,  999.0,  999.0,  999.0,  999.0
2014/11/03 05:20,  999.0,    2.0,    3.7,    2.9,  999.0,  999.0,  999.0,   -1.0,    1.4,    2.6,    2.0,    2.8,    2.3,    4.1,    1.3,   -0.9,    0.0,   -0.4,   -0.2,    0.0,    0.3,    0.2,    0.5,    0.2,   -0.1,    0.3,    0.6,    0.4,   -0.2,   -0.0,   -0.1,    0.1,   -0.0,    0.2,    0.6,    0.6,    0.6,  999.0,    0.3,   -0.2,   -0.2,   -0.4,   -0.0,   -0.1,   -0.1,    0.3,    0.2,    0.1,   -0.2,    0.2,  999.0,    0.2,   -0.2,    0.1,    0.2,    0.3,    0.0,    0.0,    0.1,    0.0,   -0.0,   -0.1,   -0.0,  999.0,   -0.2,   -0.3,   -0.0,    0.1,   -0.1,  999.0,    0.2,  999.0,  999.0,  999.0,  999.0,  999.0,  999.0,  999.0,  999.0,  999.0
2014/11/03 05:30,  999.0,  999.0,   -0.2,   -1.4,    0.0,    0.1,   -0.2,   -0.5,   -0.5,    0.2,    0.5,    0.7,    0.2,   -0.3,    0.0,   -0.0,   -0.1,   -0.1,    0.4,    0.3,    0.3,    0.6,    0.4,   -0.0,    0.4,    0.1,    0.2,    0.1,   -0.0,    0.0,    0.1,    0.0,   -0.1,   -0.1,  999.0,    4.0,    0.7,    0.0,    0.2,    0.1,   -0.2,   -0.1,   -0.1,   -0.1,    0.0,   -0.0,   -0.1,   -0.0,    0.1,    0.1,   -0.1,    0.1,    0.1,   -0.1,    0.1,    0.1,    0.0,    0.0,    0.0,    0.0,    0.1,    0.1,    0.0,    0.0,    0.0,    0.1,   -0.1,    0.1,    0.1,  999.0,    0.1,    0.4,    0.0,   -0.1,    0.2,  999.0,  999.0,  999.0,  999.0,  999.0
2014/11/03 05:40,  999.0,   -0.0,   -0.2,    0.7,    0.0,    0.0,   -0.1,   -0.7,    0.0,   -0.5,    0.3,    0.3,    0.4,   -0.0,   -0.1,    0.2,    0.2,    0.2,    0.3,    0.3,    0.1,    0.4,    0.7,    0.5,    0.6,    0.5,    0.2,    0.1,    0.3,    0.0,   -0.0,    0.0,    0.1,   -0.1,    0.8,  999.0,    0.4,   -0.1,    0.4,    0.2,   -0.1,    0.1,    0.0,   -0.1,   -0.0,    0.0,   -0.0,    0.2,    0.0,   -0.0,   -0.3,    0.1,   -0.0,   -0.0,    0.0,   -0.0,    0.1,    0.1,    0.1,   -0.1,   -0.0,   -0.1,    0.1,   -0.1,    0.1,   -0.0,   -0.1,    0.0,    0.0,    0.1,    0.1,   -0.0,    0.0,    0.0,    0.2,  999.0,  999.0,  999.0,  999.0,  999.0
2014/11/03 05:50,  999.0,  999.0,   -0.2,    0.0,    0.1,    0.1,    0.4,  999.0,    0.2,    0.2,    0.1,   -0.1,    0.3,    0.3,    0.0,    0.1,   -0.0,    0.2,    0.3,    0.1,    0.4,    0.7,    0.8,    0.9,    0.4,    0.3,    0.4,    0.4,    0.2,    0.3,    0.4,    0.1,   -0.1,   -0.1,    0.1,    0.1,    0.3,    0.6,    0.1,    0.1,   -0.1,   -0.2,    0.1,    0.2,   -0.0,   -0.2,   -0.2,   -0.0,    0.0,    0.2,   -0.1,    0.0,    0.2,   -0.1,    0.0,   -0.0,   -0.2,   -0.0,    0.0,   -0.2,    0.0,   -0.0,    0.0,    0.1,    0.1,   -0.1,   -0.1,    0.0,   -0.1,   -0.1,   -0.1,   -0.1,    0.1,    0.0,  999.0,  999.0,  999.0,  999.0,  999.0,  999.0
2014/11/03 06:00,  999.0,  999.0,   -0.2,   -0.1,   -0.3,   -0.1,   -0.4,    0.2,    0.0,    2.7,    4.0,    1.9,    1.0,    1.0,    0.8,    1.3,    1.4,    1.7,    2.2,    2.2,    2.0,    0.6,    0.8,    0.5,    0.5,    0.6,    0.3,    0.5,    0.4,    1.4,    1.2,    1.8,   -0.0,   -0.0,    0.2,   -0.3,    0.4,    0.0,    0.2,   -0.0,   -0.2,   -0.2,    0.1,   -0.0,   -0.0,    0.0,    0.0,   -0.1,   -0.1,    0.1,    0.0,   -0.2,   -0.1,   -0.1,   -0.0,   -0.1,   -0.0,    0.0,    0.1,    0.1,   -0.1,    0.0,   -0.0,   -0.1,   -0.0,   -0.0,   -0.1,   -0.1,    0.4,   -0.1,    0.0,    0.3,  999.0,   -0.6,   -0.1,  999.0,  999.0,  999.0,  999.0,  999.0
2014/11/03 06:10,  999.0,    7.9,    6.3,    6.6,    8.5,    7.6,    8.2,    9.8,    4.4,    2.6,    2.1,    3.2,    2.5,    5.3,    8.3,    5.3,    4.4,    1.0,   -0.7,   -7.3,   -2.0,    5.8,    6.5,    8.1,  999.0,  999.0,  999.0,  999.0,   14.1,  999.0,  999.0,    7.0,    8.6,    7.1,  999.0,  999.0,  999.0,   -0.0,   -0.0,   -0.0,   -1.0,   -0.6,   -0.2,   -0.0,   -0.1,    0.2,    0.2,    0.1,    0.1,    0.1,   -0.2,   -0.1,    0.0,    0.2,    0.2,   -0.1,    0.1,   -0.1,   -0.2,    0.1,    0.0,    0.2,    0.1,    0.1,    0.1,    0.0,    0.0,    0.2,    0.6,  999.0,   -0.3,   -0.1,  999.0,    0.2,  999.0,  999.0,  999.0,  999.0,  999.0,  999.0
2014/11/03 06:20,  999.0,  999.0,  999.0,  999.0,    3.9,    6.6,    4.1,    6.1,    3.2,   -1.8,   -0.9,    0.1,   -3.7,    1.5,   -0.0,    2.0,    2.6,    4.2,  999.0,  999.0,  999.0,  999.0,  999.0,  999.0,  999.0,  999.0,  999.0,  999.0,  999.0,  999.0,  999.0,  999.0,  999.0,  999.0,    0.3,    0.4,    0.2,   -0.3,    0.2,    0.0,   -0.1,   -0.4,   -0.1,   -0.1,    0.1,   -0.3,   -0.3,    0.0,   -0.1,    0.2,    0.2,    0.2,    0.0,    0.1,   -0.3,    0.1,    0.1,   -0.1,    0.2,   -0.1,    0.0,    0.0,    0.2,  999.0,    0.5,   -0.2,  999.0,  999.0,   -0.1,  999.0,   -0.2,   -0.0,  999.0,  999.0,    0.3,  999.0,  999.0,  999.0,  999.0,  999.0
2014/11/03 06:30,  999.0,  -14.0,  999.0,  -13.3,  999.0,  999.0,  999.0,  999.0,  -16.6,  -15.6,  -13.0,  999.0,  999.0,  999.0,  999.0,  999.0,  999.0,  999.0,  999.0,  999.0,  999.0,  999.0,  999.0,  999.0,  999.0,   -5.6,   -5.0,   -4.2,   -2.4,   -1.8,   -1.1,   -0.6,   -0.2,   -0.2,    0.1,   -0.3,   -0.2,    0.0,    0.1,   -0.2,   -0.1,   -0.3,   -0.1,   -0.1,    0.1,    0.0,   -0.0,   -0.1,   -0.1,   -0.1,   -0.0,   -0.0,    0.0,    0.0,    0.1,    0.1,    0.1,    0.2,    0.2,    0.0,    0.0,   -0.2,   -0.1,   -0.0,  999.0,    0.5,    0.3,   -0.3,  999.0,    0.1,    0.1,  999.0,    0.1,  999.0,    0.0,  999.0,  999.0,  999.0,  999.0,  999.0
2014/11/03 06:40,  999.0,    0.2,    0.0,    0.2,   -0.3,   -0.1,    0.2,   -0.2,   -0.2,    0.1,   -0.0,   -0.0,    0.2,    0.4,    0.1,    0.2,    0.0,   -0.1,    0.1,    0.1,    0.1,    0.3,    0.3,   -0.1,   -0.1,   -0.0,   -0.5,   -0.5,   -0.9,    0.0,   -0.1,    0.0,    0.4,   -0.1,   -0.7,   -0.6,   -0.3,   -0.3,   -0.2,   -0.1,   -0.1,   -0.1,   -0.1,   -0.1,   -0.0,   -0.0,   -0.1,   -0.1,   -0.3,    0.0,    0.1,    0.1,    0.1,    0.2,   -0.2,   -0.1,   -0.2,    0.0,   -0.0,   -0.2,   -0.2,   -0.2,   -0.1,    0.0,   -0.2,    0.1,    0.3,   -0.1,    0.2,  999.0,   -0.0,  999.0,  999.0,  999.0,  999.0,  999.0,  999.0,  999.0,  999.0,  999.0
2014/11/03 06:50,  999.0,    0.1,   -0.4,    0.0,    0.2,    0.2,   -0.0,   -0.3,   -0.3,   -0.1,   -0.0,    0.1,    0.4,    0.2,    0.2,   -0.1,   -0.1,    0.0,   -0.0,    0.1,    0.0,    0.1,    0.2,   -0.3,   -0.1,    0.1,    0.1,    0.1,    0.1,   -0.2,   -0.2,   -0.2,   -0.2,   -0.4,   -1.3,   -0.5,   -0.2,    0.0,    0.0,   -0.1,   -0.0,   -0.2,    0.1,   -0.1,   -0.0,    0.1,    0.2,   -0.1,    0.1,   -0.1,   -0.1,    0.2,    0.1,   -0.0,    0.2,    0.1,   -0.0,   -0.1,    0.0,    0.2,    0.2,    0.1,   -0.1,   -0.1,    0.4,    0.1,    0.2,    0.2,  999.0,  999.0,  999.0,  999.0,    0.2,  999.0,  999.0,  999.0,  999.0,  999.0,  999.0,  999.0
2014/11/03 07:00,  999.0,    0.1,   -0.5,   -0.9,   -0.2,    0.1,    0.0,    0.1,    0.1,    0.4,    0.2,   -0.4,   -0.2,   -0.6,   -0.7,   -1.3,   -0.7,    1.5,    0.6,   -0.2,  999.0,  999.0,    8.2,   12.8,    9.8,    7.8,    5.1,    3.6,   -0.2,  999.0,   -0.1,   -0.1,    0.0,    0.0,  999.0,    0.1,  999.0,  999.0,   -0.2,    0.1,  999.0,    0.0,  999.0,  999.0,  999.0,    0.1,  999.0,  999.0,  999.0,  999.0,  999.0,  999.0,    0.7,  999.0,    0.1,  999.0,  999.0,  999.0,  999.0,  999.0,  999.0,  999.0,  999.0,  999.0,  999.0,  999.0,  999.0,  999.0,  999.0,  999.0,  999.0,  999.0,  999.0,  999.0,  999.0,  999.0,  999.0,  999.0,  999.0,  999.0
2014/11/03 07:10,  999.0,  999.0,  999.0,  999.0,    3.9,  999.0,    2.6,    3.0,    2.8,    0.2,    5.7,    5.8,    1.9,    9.1,    4.8,    5.8,   -1.0,  999.0,    5.2,    4.8,    9.6,  999.0,    9.4,   19.1,  999.0,  999.0,  999.0,  999.0,  999.0,  999.0,  999.0,  999.0,  999.0,  999.0,  999.0,  999.0,  999.0,  999.0,  999.0,  999.0,  999.0,  999.0,  999.0,  999.0,  999.0,  999.0,  999.0,  999.0,  999.0,  999.0,  999.0,  999.0,  999.0,  999.0,  999.0,   -0.4,  999.0,   -0.3,  999.0,   -0.1,  999.0,    0.1,    0.1,  999.0,  999.0,    0.3,  999.0,  999.0,  999.0,  999.0,  999.0,  999.0,  999.0,  999.0,  999.0,  999.0,  999.0,  999.0,  999.0,  999.0
2014/11/03 07:20,  999.0,  999.0,  999.0,    5.6,  999.0,    4.4,    6.7,    3.3,  999.0,    9.1,   12.4,    9.7,    6.9,   10.8,    8.8,  999.0,    8.1,    7.7,  999.0,   17.7,   12.0,  999.0,  999.0,  999.0,   21.6,  999.0,  999.0,   14.2,  999.0,  999.0,  999.0,  999.0,  999.0,  999.0,  999.0,  999.0,  999.0,  999.0,  999.0,  999.0,  999.0,   -0.1,  999.0,  999.0,  999.0,   -0.2,    0.2,    0.2,  999.0,   -0.1,  999.0,  999.0,  999.0,  999.0,  999.0,  999.0,    0.1,   -0.2,   -0.2,    0.0,   -0.5,  999.0,    0.1,    0.1,    0.2,  999.0,   -0.4,  999.0,  999.0,  999.0,  999.0,  999.0,  999.0,  999.0,  999.0,  999.0,  999.0,  999.0,  999.0,  999.0
2014/11/03 07:30,  999.0,  999.0,  999.0,    3.1,   -0.1,  999.0,    0.3,    1.7,   -1.3,    6.2,    5.7,    3.7,    4.6,    4.2,    4.8,    2.2,    4.2,    6.0,    2.7,    7.9,   11.0,   12.8,    9.9,   12.8,   15.7,   21.6,   21.7,  999.0,  999.0,  999.0,  999.0,  999.0,  999.0,  999.0,  999.0,  999.0,  999.0,  999.0,  999.0,  999.0,  999.0,  999.0,  999.0,  999.0,   -0.4,  999.0,   -0.2,    0.1,  999.0,    0.4,   -0.0,    0.2,    0.3,    0.1,    0.1,  999.0,   -0.1,   -0.3,  999.0,    0.1,    0.3,    0.0,    0.3,    0.3,    0.1,  999.0,  999.0,  999.0,  999.0,  999.0,  999.0,  999.0,  999.0,  999.0,  999.0,  999.0,  999.0,  999.0,  999.0,  999.0
2014/11/03 07:40,  999.0,  999.0,  999.0,  999.0,  999.0,  999.0,  999.0,   -1.3,  999.0,   -3.7,   -1.6,    5.9,   -5.6,   -0.1,    3.6,   -0.1,    0.5,  999.0,    6.4,   15.0,   14.6,  999.0,   14.7,  999.0,  999.0,    3.4,   15.5,  999.0,  999.0,  999.0,  999.0,  999.0,  999.0,  999.0,  999.0,  999.0,  999.0,  999.0,  999.0,  999.0,  999.0,  999.0,   -0.3,   -0.1,  999.0,  999.0,    0.1,    0.2,  999.0,    0.2,   -0.1,   -0.2,   -0.1,    0.2,    0.2,    0.2,  999.0,  999.0,  999.0,  999.0,  999.0,  999.0,  999.0,  999.0,  999.0,  999.0,    0.4,  999.0,  999.0,  999.0,  999.0,  999.0,  999.0,  999.0,  999.0,  999.0,  999.0,  999.0,  999.0,  999.0
2014/11/03 07:50,  999.0,   -1.5,   -0.6,   -1.2,   -3.9,    4.6,   -0.8,   -0.8,    0.2,    0.4,   -2.5,    2.4,   10.3,    5.7,    8.4,   10.4,   13.3,   14.3,   11.6,   21.8,   15.8,   15.8,   24.3,   15.3,   25.5,   21.1,  999.0,   16.4,  999.0,  999.0,  999.0,  999.0,  999.0,  999.0,  999.0,  999.0,  999.0,  999.0,  999.0,   -0.1,   -0.1,    0.2,  999.0,   -0.2,    0.2,   -0.0,    0.1,  999.0,    0.1,  999.0,  999.0,  999.0,   -0.3,   -0.1,   -0.1,    0.1,   -0.1,   -0.3,   -0.1,    0.2,   -0.4,   -0.0,    0.2,   -0.3,   -0.0,   -0.7,  999.0,  999.0,  999.0,  999.0,  999.0,  999.0,  999.0,  999.0,  999.0,  999.0,  999.0,  999.0,  999.0,  999.0
2014/11/03 08:00,  999.0,  999.0,  999.0,    0.4,   -0.3,    1.8,    8.5,    1.3,    1.6,    5.5,   12.5,    7.6,    9.1,    4.8,    6.6,    9.6,    6.2,    3.9,    6.9,  999.0,    8.3,    7.9,  999.0,   15.4,   15.1,   20.0,   21.4,   19.8,   18.4,  999.0,  999.0,  999.0,  999.0,  999.0,  999.0,  999.0,  999.0,  999.0,  999.0,  999.0,   -0.4,   -0.2,    0.3,   -0.1,   -0.4,  999.0,    0.0,   -0.1,   -0.0,    0.1,    0.3,   -0.5,  999.0,   -0.1,    0.2,    0.2,    0.1,    0.3,   -0.0,   -0.0,   -0.4,    0.0,   -0.1,   -0.2,    0.3,    0.3,    0.3,   -0.2,  999.0,  999.0,  999.0,  999.0,  999.0,  999.0,  999.0,  999.0,  999.0,  999.0,  999.0,  999.0
2014/11/03 08:10,  999.0,  999.0,  999.0,    0.0,   -0.1,   -0.2,    0.2,   -0.0,    0.2,  999.0,    0.1,    0.2,    0.1,  999.0,   -0.6,   -0.2,  999.0,  999.0,  999.0,  999.0,  999.0,  999.0,  999.0,  999.0,  999.0,  999.0,  999.0,  999.0,  999.0,  999.0,  999.0,  999.0,  999.0,  999.0,  999.0,  999.0,  999.0,  999.0,  999.0,  999.0,  999.0,  999.0,    0.2,    0.0,   -0.1,   -0.1,    0.0,    0.1,    0.0,   -0.1,   -0.0,  999.0,   -0.2,    0.0,   -0.0,    0.1,    0.0,    0.0,    0.2,   -0.1,   -0.1,   -0.2,   -0.4,   -0.2,    0.3,    0.1,   -0.1,   -0.1,    0.2,  999.0,   -0.3,  999.0,    0.1,    0.2,  999.0,  999.0,  999.0,  999.0,  999.0,  999.0
2014/11/03 08:20,  999.0,    1.9,   -0.2,   -0.2,   -0.3,   -0.1,   -0.0,   -0.1,    0.0,    0.2,    0.5,    1.1,    0.4,   -0.2,    0.4,    0.3,   -0.3,   -0.2,    0.1,    0.4,    0.1,   -0.3,    0.4,    0.5,    0.3,    0.1,   -0.5,   -0.5,   -0.8,   -0.2,    0.0,   -0.6,  999.0,  999.0,   -0.3,  999.0,  999.0,  999.0,    0.1,   -0.2,   -0.3,    0.0,    0.5,   -0.1,   -0.1,   -0.2,   -0.1,   -0.2,    0.2,    0.2,   -0.3,    0.1,  999.0,    0.4,    0.3,   -0.0,    0.1,   -0.0,   -0.2,   -0.0,    0.1,   -0.1,   -0.7,    0.0,   -0.1,   -0.2,    0.1,   -0.1,   -0.1,    0.1,    0.0,  999.0,  999.0,   -0.2,  999.0,  999.0,  999.0,  999.0,  999.0,  999.0
2014/11/03 08:30,  999.0,    0.3,   -0.3,   -0.2,   -0.1,   -0.1,   -0.2,    0.1,    0.0,    0.1,   -0.2,   -0.1,   -0.2,   -0.1,    0.1,   -0.1,   -0.1,   -0.1,   -0.3,    0.1,    0.1,    0.5,   -0.4,   -0.2,   -0.3,   -0.1,   -0.5,   -0.3,    0.1,    0.0,    0.2,   -0.3,   -1.4,   -1.2,  999.0,  999.0,  999.0,  999.0,  999.0,    0.1,   -0.2,    0.1,   -0.4,   -0.1,    0.1,    0.0,    0.1,    0.2,   -0.2,   -0.0,    0.5,  999.0,    0.3,   -0.2,    0.1,    0.0,   -0.1,   -0.1,   -0.0,   -0.2,   -0.2,   -0.3,    0.4,  999.0,    0.2,  999.0,   -0.3,  999.0,    0.0,  999.0,   -0.1,  999.0,  999.0,  999.0,  999.0,  999.0,  999.0,  999.0,  999.0,  999.0
2014/11/03 08:40,  999.0,    0.9,   -0.7,    0.0,   -0.3,   -0.0,   -0.0,   -0.2,   -0.2,   -0.1,    0.6,    0.2,    0.4,    0.4,    0.2,    0.1,    0.1,   -0.0,    0.1,    0.5,    0.1,    0.5,   -0.1,   -0.1,   -0.2,    0.2,   -0.4,   -0.1,   -0.0,   -0.8,   -1.1,   -0.1,   -0.6,  999.0,   -0.7,   -0.8,  999.0,  999.0,  999.0,    0.3,   -0.0,   -0.1,   -0.3,    0.2,    0.3,    0.3,    0.0,   -0.1,   -0.2,  999.0,    0.0,   -0.2,   -0.1,    0.3,  999.0,    0.1,   -0.1,    0.0,   -0.0,   -0.1,    0.2,   -0.0,    0.0,    0.1,  999.0,    0.3,    0.3,  999.0,   -0.1,   -0.3,    0.2,  999.0,  999.0,  999.0,  999.0,  999.0,  999.0,  999.0,  999.0,  999.0
2014/11/03 08:50,  999.0,    6.4,    5.3,    7.6,    5.0,    9.1,    7.6,    5.1,    4.6,    5.8,    6.2,  999.0,    4.1,   13.0,  999.0,    7.1,  999.0,  999.0,  999.0,  999.0,    3.6,  999.0,  999.0,  999.0,  999.0,  999.0,  999.0,  999.0,  999.0,  999.0,  999.0,  999.0,  999.0,  999.0,  999.0,  999.0,  999.0,  999.0,  999.0,  999.0,  999.0,  999.0,    0.1,    0.2,  999.0,    0.1,   -0.2,   -0.0,    0.4,    0.1,    0.2,  999.0,  999.0,   -0.3,  999.0,  999.0,    0.3,    0.2,    0.4,    0.3,    0.1,   -0.2,   -0.1,    0.0,  999.0,  999.0,  999.0,  999.0,  999.0,  999.0,  999.0,  999.0,   -0.0,  999.0,  999.0,  999.0,  999.0,  999.0,  999.0,  999.0
2014/11/03 09:00,  999.0,    0.2,    0.1,   -0.0,    1.5,    0.6,    0.4,    0.9,  999.0,  999.0,  999.0,  999.0,  999.0,  999.0,  999.0,  999.0,  999.0,  999.0,  999.0,  999.0,  999.0,  999.0,  999.0,  999.0,  999.0,  999.0,  999.0,  999.0,  999.0,  999.0,  999.0,  999.0,  999.0,  999.0,  999.0,  999.0,  999.0,  999.0,  999.0,    0.1,   -0.3,  999.0,  999.0,  999.0,   -0.1,    0.1,    0.2,    0.3,    0.1,  999.0,   -0.6,  999.0,   -0.1,   -0.1,    0.0,   -0.2,   -0.2,   -0.1,    0.2,  999.0,   -0.1,  999.0,  999.0,  999.0,  999.0,  999.0,  999.0,  999.0,  999.0,  999.0,  999.0,  999.0,   -0.4,  999.0,  999.0,  999.0,  999.0,  999.0,  999.0,  999.0
2014/11/03 09:10,  999.0,  999.0,  999.0,  999.0,  999.0,  999.0,   -0.2,    0.6,    0.1,    0.1,  999.0,    1.3,    0.1,    0.8,    0.2,    0.3,   -0.1,   -0.4,   -0.1,   -0.2,   -0.1,    0.5,   -0.5,   -0.0,   -0.3,   -0.4,   -0.4,   -0.3,    0.1,    0.1,   -0.1,   -0.0,   -0.4,   -0.0,  999.0,    0.1,  999.0,  999.0,    0.1,   -0.3,  999.0,   -0.3,  999.0,   -0.4,  999.0,    0.1,    0.1,    0.1,    0.3,  999.0,  999.0,  999.0,    0.5,   -0.0,   -0.2,    0.1,   -0.1,   -0.0,  999.0,  999.0,  999.0,   -0.0,  999.0,    0.0,  999.0,  999.0,   -0.1,   -0.2,  999.0,  999.0,   -0.2,  999.0,  999.0,  999.0,  999.0,  999.0,  999.0,  999.0,  999.0,  999.0
2014/11/03 09:20,  999.0,  999.0,    0.6,   -0.4,    0.5,    0.4,    0.0,    0.3,   -0.4,   -0.1,    1.0,    0.4,    0.4,    0.2,    0.2,    0.1,   -0.0,   -0.1,   -0.3,    0.1,   -0.4,    0.4,   -0.3,   -0.2,   -0.2,   -0.1,   -0.1,   -0.2,    0.1,   -0.1,   -0.1,   -0.0,    0.1,    0.4,    0.1,   -0.2,   -0.4,   -0.0,   -0.4,    0.1,   -0.5,   -0.3,  999.0,   -0.2,   -0.3,   -0.0,    0.1,    0.0,    0.2,   -0.1,   -0.1,  999.0,    0.1,   -0.1,    0.1,    0.3,   -0.0,    0.1,    0.0,   -0.2,    0.1,    0.3,    0.5,   -0.3,  999.0,   -0.4,   -0.2,   -0.2,    0.3,    0.2,    0.0,  999.0,  999.0,  999.0,  999.0,  999.0,  999.0,  999.0,  999.0,  999.0
2014/11/03 09:30,  999.0,  999.0,    5.1,    0.6,    5.2,    5.2,    4.8,    4.7,    0.0,    0.5,  999.0,    0.2,    0.1,    0.5,    4.0,    0.1,    0.1,   13.9,   14.7,   15.4,   15.5,   14.5,  999.0,   16.3,   15.4,   16.5,   18.6,   18.2,  999.0,   19.8,   19.6,   15.7,    9.3,    0.3,    0.0,  999.0,   -0.1,  999.0,  999.0,   -0.2,   -0.3,   -0.2,    0.1,    0.0,   -0.1,   -0.1,   -0.0,   -0.1,   -0.1,    0.2,   -0.1,   -0.2,    0.1,   -0.2,   -0.0,    0.2,    0.0,    0.0,   -0.2,   -0.2,   -0.0,    0.3,    0.1,    0.0,   -0.1,   -0.0,    0.1,    0.1,   -0.2,  999.0,    0.3,  999.0,  999.0,  999.0,  999.0,  999.0,  999.0,  999.0,  999.0,  999.0
2014/11/03 09:40,  999.0,    0.0,   -0.1,    1.9,   -0.0,    1.4,    1.1,    1.1,    1.0,  999.0,  999.0,    2.1,    1.5,    0.8,    0.2,    0.3,  999.0,  999.0,  999.0,  999.0,  999.0,  999.0,  999.0,  999.0,  999.0,   12.4,   16.6,    5.2,   -0.5,   -0.1,   -0.2,    3.5,   -0.1,  999.0,    0.3,    0.0,   -0.1,    0.0,    0.1,    0.3,   -0.2,   -0.3,    0.1,   -0.0,   -0.1,   -0.1,    0.2,   -0.2,    0.0,    0.0,    0.2,   -0.0,   -0.0,   -0.1,   -0.1,   -0.0,    0.1,    0.2,   -0.0,   -0.0,   -0.0,   -0.1,    0.2,    0.0,   -0.0,  999.0,  999.0,    0.3,    0.0,    0.1,    0.0,  999.0,  999.0,  999.0,  999.0,  999.0,  999.0,  999.0,  999.0,  999.0
2014/11/03 09:50,  999.0,    0.3,    0.7,    1.1,    3.7,    4.1,    5.1,    0.5,   -0.1,   -0.3,    1.2,  999.0,    2.3,    5.6,    0.6,   -0.3,   -0.2,   -0.6,   -0.9,   -0.4,  999.0,  999.0,    1.2,    0.3,  999.0,   -0.2,    0.9,    0.8,    0.3,   -0.1,    0.1,   -0.0,   -0.1,   -0.3,   -0.1,   -0.0,    0.0,    0.1,  999.0,   -0.0,   -0.2,   -0.5,   -0.1,    0.3,    0.0,    0.1,    0.3,    0.2,   -0.0,  999.0,  999.0,  999.0,   -0.1,    0.0,    0.0,    0.2,   -0.2,   -0.3,   -0.1,    0.1,   -0.1,   -0.2,  999.0,  999.0,   -0.2,  999.0,  999.0,  999.0,    0.0,  999.0,  999.0,   -0.4,  999.0,    0.0,  999.0,  999.0,  999.0,  999.0,  999.0,  999.0
2014/11/03 10:00,  999.0,    0.6,  999.0,  999.0,   -0.4,  999.0,    0.9,  999.0,    1.3,  999.0,  999.0,  999.0,    5.8,    0.0,   -0.6,   -0.3,    4.2,    3.8,    3.5,    3.1,    2.7,    2.5,    1.5,    0.7,    0.7,    0.1,    0.2,    0.0,    0.2,    0.0,   -0.1,    0.1,   -0.1,   -0.2,   -0.1,   -0.1,    0.1,    0.1,   -0.1,    0.0,   -0.0,   -0.2,    0.3,    0.0,   -0.2,   -0.3,   -0.1,   -0.1,   -0.0,   -0.0,    0.0,   -0.2,   -0.3,   -0.0,   -0.1,    0.1,    0.1,   -0.0,    0.3,   -0.0,    0.0,   -0.2,    0.0,   -0.2,   -0.2,   -0.2,   -0.1,   -0.1,    0.0,  999.0,   -0.1,   -0.1,    0.1,  999.0,    0.2,  999.0,  999.0,  999.0,  999.0,  999.0
2014/11/03 10:10,  999.0,    0.1,    0.1,    0.3,    0.4,    0.5,   -0.0,    0.1,   -0.3,   -0.9,   -0.5,   -0.5,    0.1,   -0.2,   -0.3,   -0.4,   -0.1,   -0.0,   -1.0,   -2.6,   -3.0,   -2.0,   -0.1,   -0.6,   -0.2,   -0.2,   -0.2,   -0.1,    0.0,    0.2,   -0.1,    0.0,   -0.1,   -0.0,   -0.0,   -0.1,   -0.0,    0.3,   -0.2,   -0.0,   -0.4,   -0.4,    0.0,   -0.1,    0.3,    0.1,    0.1,    0.0,   -0.1,   -0.0,  999.0,    0.1,    0.1,    0.1,   -0.2,   -0.3,   -0.1,    0.1,   -0.3,   -0.2,  999.0,    0.1,    0.3,   -0.0,    0.1,    0.0,    0.1,    0.2,    0.1,   -0.2,  999.0,   -0.3,   -0.1,   -0.2,  999.0,  999.0,  999.0,  999.0,  999.0,  999.0
2014/11/03 10:20,  999.0,  999.0,   -0.1,   -0.0,    0.1,    0.1,    0.0,   -0.0,   -0.0,    0.0,   -0.0,    0.2,    0.2,    0.0,    0.2,    0.3,   -0.0,   -0.0,    0.0,    0.2,   -0.0,    0.1,   -0.1,   -0.1,    0.0,    0.1,    0.0,   -0.4,   -0.4,    0.0,   -0.1,   -0.0,   -0.1,   -0.1,   -0.2,   -0.1,    0.1,   -0.2,   -0.1,   -0.0,   -0.2,   -0.2,    0.1,    0.1,    0.1,    0.1,    0.0,    0.0,    0.1,   -0.2,   -0.2,   -0.2,   -0.1,    0.0,   -0.0,    0.1,   -0.1,   -0.2,   -0.0,   -0.2,    0.1,   -0.0,    0.3,    0.2,    0.2,    0.1,    0.1,   -0.2,   -0.6,    0.1,   -0.2,  999.0,    0.2,  999.0,  999.0,  999.0,  999.0,  999.0,  999.0,  999.0
2014/11/03 10:30,  999.0,  999.0,    0.0,    0.2,    0.0,   -0.1,   -0.0,    0.0,    0.1,    0.2,    0.3,    0.0,    0.1,    0.1,    0.2,   -0.0,   -0.2,   -0.1,   -0.3,   -0.1,   -0.3,   -0.2,    0.1,   -0.2,    0.2,    0.2,    0.3,   -0.1,   -0.2,   -0.2,    0.0,    0.1,    0.1,    0.0,   -0.0,    0.0,   -0.1,   -0.0,   -0.1,   -0.1,   -0.3,   -0.1,   -0.2,    0.0,   -0.1,    0.0,   -0.0,   -0.1,   -0.0,    0.1,    0.1,   -0.1,   -0.0,    0.2,    0.0,   -0.0,    0.1,   -0.1,    0.0,    0.1,   -0.0,    0.1,    0.2,   -0.1,    0.2,   -0.1,   -0.1,    0.1,    0.5,   -0.0,  999.0,    0.1,    0.2,    0.2,  999.0,  999.0,  999.0,  999.0,  999.0,  999.0
2014/11/03 10:40,  999.0,  999.0,   -0.0,   -0.2,    0.2,    0.1,    0.2,    0.2,    0.3,    0.2,   -0.1,    0.0,    0.0,   -0.0,   -0.0,    0.1,    0.0,    5.6,    0.0,   -0.1,   -0.0,   -0.0,    3.2,    0.1,    0.1,    0.1,    0.1,    0.3,    0.1,   -0.0,    0.0,    0.0,   -0.1,    0.1,   -0.1,    0.0,   -0.0,   -0.0,   -0.0,   -0.0,   -0.3,   -0.5,   -0.2,   -0.3,   -0.1,    0.1,   -0.0,   -0.1,    0.0,   -0.1,   -0.0,   -0.1,    0.0,    0.1,    0.1,   -0.0,   -0.0,   -0.2,    0.2,    0.1,   -0.2,    0.0,   -0.3,   -0.0,    0.2,   -0.2,   -0.0,    0.1,   -0.1,   -0.2,  999.0,   -0.0,    0.1,  999.0,  999.0,  999.0,  999.0,  999.0,  999.0,  999.0
2014/11/03 10:50,  999.0,  999.0,  999.0,   -0.0,   -0.1,    0.1,    0.2,   -0.0,  999.0,  999.0,  999.0,  999.0,    0.4,  999.0,    0.2,    0.4,    7.9,    6.6,    6.6,    6.3,    6.8,    7.0,    7.2,    6.9,    6.5,    6.2,   -0.3,   -0.4,    4.1,    0.0,    0.1,    0.1,    0.1,   -0.1,    0.1,   -0.3,   -0.1,    0.0,   -0.0,   -0.0,   -0.2,   -0.3,   -0.2,    0.0,   -0.1,    0.1,    0.1,   -0.1,   -0.2,   -0.2,   -0.1,   -0.3,    0.1,    0.1,   -0.1,   -0.2,   -0.1,    0.0,   -0.1,    0.1,   -0.1,    0.2,    0.0,    0.0,   -0.3,   -0.2,  999.0,  999.0,   -0.1,  999.0,  999.0,  999.0,  999.0,  999.0,  999.0,  999.0,  999.0,  999.0,  999.0,  999.0
2014/11/03 11:00,  999.0,  999.0,  999.0,    0.1,    0.1,  999.0,    0.1,    0.2,    3.1,   -0.5,   -0.2,    1.8,    1.9,    2.7,    3.1,    2.7,   -0.0,    0.0,    0.0,    0.0,  999.0,  999.0,    0.4,  999.0,    0.2,   -0.0,   -0.1,    0.3,    0.1,   -0.0,   -0.1,   -0.0,    0.0,   -0.1,   -0.0,   -0.1,   -0.1,   -0.1,   -0.1,   -0.1,    0.0,    0.0,    0.0,    0.0,   -0.0,   -0.2,    0.0,    0.2,    0.1,   -0.1,   -0.1,   -0.1,   -0.2,   -0.1,   -0.2,   -0.1,   -0.0,   -0.0,   -0.1,   -0.0,   -0.0,   -0.1,    0.0,    0.1,    0.2,    0.2,    0.1,   -0.0,    0.0,  999.0,  999.0,  999.0,  999.0,  999.0,  999.0,  999.0,  999.0,  999.0,  999.0,  999.0
2014/11/03 11:10,  999.0,  999.0,  999.0,  999.0,  999.0,  999.0,  999.0,  999.0,  999.0,    3.5,    3.3,    1.2,    0.1,   -1.2,    0.3,    1.5,   -2.7,  999.0,  999.0,  999.0,  999.0,    2.2,  999.0,  999.0,  999.0,  999.0,   11.9,  999.0,  999.0,  999.0,  999.0,  999.0,  999.0,  999.0,  999.0,  999.0,  999.0,  999.0,  999.0,   -0.3,   -0.2,   -0.4,    0.1,   -0.0,    0.1,    0.1,   -0.0,    0.1,    0.1,  999.0,   -0.1,   -0.0,    0.0,   -0.1,   -0.2,   -0.0,   -0.2,   -0.3,   -0.0,   -0.4,   -0.2,   -0.1,    0.0,   -0.0,  999.0,    0.1,  999.0,  999.0,  999.0,  999.0,  999.0,  999.0,  999.0,  999.0,  999.0,  999.0,  999.0,  999.0,  999.0,  999.0
2014/11/03 11:20,  999.0,  999.0,  999.0,  999.0,    6.9,   11.9,   14.5,   14.6,   10.7,    8.9,   10.6,    7.7,    5.6,    7.4,    7.6,   10.8,    8.2,    2.7,  999.0,  999.0,  999.0,  999.0,  999.0,  999.0,  999.0,  999.0,  999.0,   24.6,  999.0,   24.3,  999.0,  999.0,  999.0,  999.0,  999.0,  999.0,  999.0,   -0.1,   -0.3,   -0.2,   -0.2,   -0.2,   -0.4,   -0.3,   -0.0,   -0.1,    0.1,   -0.0,   -0.2,   -0.1,    0.0,    0.2,    0.1,   -0.1,    0.1,   -0.1,   -0.0,   -0.0,    0.1,   -0.2,    0.1,    0.1,    0.1,    0.3,    0.1,    0.1,   -0.1,    0.0,    0.1,  999.0,  999.0,  999.0,   -0.2,    0.1,  999.0,  999.0,  999.0,  999.0,  999.0,  999.0
2014/11/03 11:30,  999.0,  999.0,  999.0,  999.0,  999.0,    5.2,    3.1,    4.8,  999.0,    2.8,    2.7,    2.1,    2.9,   -1.0,   -6.3,   -6.9,   -1.8,    1.8,    4.5,  999.0,  999.0,  999.0,  999.0,  999.0,  999.0,  999.0,  999.0,  999.0,  999.0,  999.0,  999.0,  999.0,  999.0,  999.0,  999.0,  999.0,  999.0,  999.0,  999.0,   -0.0,    0.1,   -0.2,    0.0,   -0.1,    0.2,    0.1,  999.0,   -0.1,   -0.1,    0.0,   -0.0,    0.0,   -0.1,    0.0,    0.2,    0.1,   -0.1,   -0.2,    0.3,   -0.2,   -0.4,   -0.4,   -0.2,   -0.0,   -0.2,   -0.1,   -0.2,   -0.0,    0.1,    0.3,  999.0,  999.0,  999.0,  999.0,  999.0,  999.0,  999.0,  999.0,  999.0,  999.0
2014/11/03 11:40,  999.0,   -0.2,   -0.2,    0.3,    0.4,    0.2,    0.4,    0.7,    1.1,  999.0,    2.6,    0.4,    3.4,    3.0,    1.6,    1.5,    3.3,    2.5,  999.0,    4.7,    2.2,    2.0,  999.0,    2.8,  999.0,    8.8,  999.0,  999.0,    0.3,    4.4,   -0.3,    0.2,  999.0,  999.0,    0.2,    0.1,    0.1,    0.2,   -0.1,   -0.0,   -0.3,  999.0,    0.1,    0.3,  999.0,   -0.0,   -0.3,   -0.2,    0.1,    0.2,    0.0,   -0.3,   -0.0,    0.1,   -0.1,   -0.3,    0.0,   -0.0,    0.3,   -0.2,    0.2,    0.2,   -0.1,    0.2,    0.1,    0.2,    0.2,   -0.3,   -0.1,   -0.1,    0.1,   -0.2,  999.0,   -0.1,   -0.0,  999.0,  999.0,  999.0,  999.0,  999.0
2014/11/03 11:50,  999.0,  999.0,  999.0,    1.9,   -0.8,   -2.1,   -1.5,   -2.0,   -0.2,   -2.8,   -1.0,   -0.2,    0.4,   -0.3,    0.1,   -0.6,   -0.3,   -2.5,    2.2,    5.2,    3.9,    5.1,    8.2,    6.7,   13.7,   17.3,   19.0,  999.0,   26.3,  999.0,  999.0,  999.0,  999.0,  999.0,  999.0,  999.0,  999.0,  999.0,  999.0,   -0.0,    0.1,    0.1,    0.2,    0.0,    0.3,   -0.2,    0.2,    0.2,   -0.0,    0.0,   -0.1,   -0.0,    0.0,   -0.1,   -0.2,   -0.5,    0.2,    0.2,   -0.3,   -0.0,   -0.2,   -0.1,   -0.2,    0.0,    0.1,  999.0,  999.0,   -0.1,    0.2,  999.0,  999.0,  999.0,   -0.1,  999.0,  999.0,  999.0,  999.0,  999.0,  999.0,  999.0
2014/11/03 12:00,  999.0,    2.7,    2.8,    1.7,    1.4,   -1.1,    0.4,    1.8,    1.0,   -0.3,   -4.7,  999.0,   -3.0,   -4.1,    0.2,   -0.1,    0.8,  999.0,    1.0,  999.0,  999.0,  999.0,  999.0,  999.0,  999.0,  999.0,   26.4,   28.6,  999.0,  999.0,  999.0,  999.0,  999.0,  999.0,  999.0,  999.0,  999.0,  999.0,  999.0,  999.0,  999.0,  999.0,    0.0,    0.2,   -0.2,   -0.0,    0.0,   -0.2,   -0.3,   -0.1,   -0.0,   -0.1,    0.1,   -0.0,    0.1,   -0.1,    0.2,   -0.1,   -0.1,    0.2,    0.1,    0.0,    0.1,    0.0,   -0.0,    0.1,    0.0,   -0.3,  999.0,   -0.1,    0.0,  999.0,    0.1,    0.1,  999.0,  999.0,  999.0,  999.0,  999.0,  999.0
2014/11/03 12:10,  999.0,    2.9,    3.0,    4.5,    2.9,    2.8,    2.0,    1.1,    3.2,    3.9,    1.9,    3.7,    1.8,    3.9,    7.1,    3.7,    9.1,    8.0,    4.0,    8.2,    7.8,   11.0,  999.0,    1.4,   10.8,    8.7,   12.3,   10.7,    9.8,  999.0,  999.0,  999.0,  999.0,  999.0,  999.0,  999.0,  999.0,  999.0,  999.0,  999.0,  999.0,  999.0,  999.0,   -0.2,   -0.1,   -0.1,   -0.1,    0.1,    0.1,    0.1,   -0.1,   -0.1,   -0.1,    0.1,    0.1,   -0.1,   -0.1,    0.2,    0.1,    0.2,   -0.0,    0.1,    0.2,   -0.1,    0.0,    0.1,    0.3,  999.0,    0.2,   -0.4,    0.0,  999.0,  999.0,  999.0,  999.0,  999.0,  999.0,  999.0,  999.0,  999.0
2014/11/03 12:20,  999.0,    5.3,    7.3,    3.4,    1.1,   -0.5,    1.5,   -0.2,   -0.5,   -2.1,    0.6,    2.0,    0.6,   -2.5,    2.4,  999.0,   17.8,    4.4,  999.0,  999.0,  999.0,  999.0,  999.0,  999.0,  999.0,  999.0,  999.0,   11.6,  999.0,  999.0,  999.0,  999.0,  999.0,  999.0,  999.0,  999.0,  999.0,  999.0,   -0.2,  999.0,   -0.4,  999.0,   -0.0,   -0.2,    0.1,    0.2,    0.1,   -0.1,   -0.1,  999.0,    0.1,   -0.1,   -0.1,    0.1,    0.1,   -0.1,   -0.1,   -0.0,    0.0,   -0.2,   -0.2,   -0.2,   -0.2,    0.0,    0.0,   -0.2,   -0.3,   -0.1,   -0.0,   -0.1,  999.0,  999.0,  999.0,  999.0,  999.0,  999.0,  999.0,  999.0,  999.0,  999.0
2014/11/03 12:30,  999.0,   -0.6,   -0.3,    0.7,    1.6,    0.3,  999.0,  999.0,  999.0,    9.1,  999.0,  999.0,    2.8,    8.3,    6.9,  999.0,  999.0,  999.0,  999.0,  999.0,  999.0,  999.0,  999.0,    8.2,    5.1,  999.0,  999.0,  999.0,  999.0,  999.0,  999.0,   -0.4,    0.1,  999.0,  999.0,   -0.4,  999.0,  999.0,   -0.5,   -0.1,   -0.3,   -0.1,   -0.3,   -0.1,   -0.2,  999.0,   -0.0,    0.1,   -0.3,  999.0,   -0.2,   -0.2,   -0.0,   -0.2,    0.0,   -0.0,    0.0,    0.0,    0.0,   -0.1,   -0.1,   -0.2,    0.0,    0.1,  999.0,   -0.3,   -0.1,  999.0,    0.0,  999.0,    0.0,  999.0,   -0.2,  999.0,  999.0,  999.0,  999.0,  999.0,  999.0,  999.0
2014/11/03 12:40,  999.0,   -0.3,    0.4,   -0.1,    0.6,   -0.7,  999.0,    0.0,  999.0,  999.0,  999.0,  999.0,  999.0,    1.3,  999.0,  999.0,  999.0,  999.0,   -1.7,   -1.2,   -1.3,  999.0,   -0.4,  999.0,   -0.2,  999.0,    0.7,    1.3,   -0.3,   -0.0,   -0.5,   -0.5,   -0.5,   -0.8,   -1.2,   -2.1,  999.0,   -0.3,   -0.4,   -0.0,   -0.2,   -0.1,    0.1,    0.1,    0.2,    0.3,  999.0,   -0.3,    0.0,    0.1,   -0.2,    0.1,   -0.0,   -0.2,    0.1,   -0.1,   -0.3,    0.0,    0.1,   -0.2,    0.0,    0.1,    0.0,   -0.1,    0.3,   -0.0,    0.1,  999.0,   -0.1,   -0.5,   -0.1,   -0.3,   -0.2,  999.0,  999.0,  999.0,  999.0,  999.0,  999.0,  999.0
2014/11/03 12:50,  999.0,    0.0,   -0.1,   -0.0,    0.7,    0.4,    1.3,    1.0,    0.3,    0.1,    0.2,    0.6,    0.5,   -0.0,   -0.1,   -0.0,   -0.1,   -0.1,    0.1,    0.2,    0.3,    0.4,    0.5,    0.3,    0.2,    0.3,    0.3,    0.1,    0.7,    1.2,    0.7,    1.1,    0.1,  999.0,  999.0,   -1.3,   -1.1,   -0.8,   -0.6,   -0.0,   -0.1,    0.2,  999.0,    0.2,   -0.2,  999.0,   -0.2,  999.0,    0.1,    0.2,    0.2,    0.2,   -0.1,    0.1,   -0.1,   -0.2,   -0.3,   -0.0,   -0.1,    0.1,    0.4,    0.1,   -0.1,   -0.1,    0.2,   -0.1,   -0.4,    0.1,  999.0,    0.1,  999.0,    0.3,  999.0,  999.0,  999.0,  999.0,  999.0,  999.0,  999.0,  999.0
2014/11/03 13:00,  999.0,  999.0,   -8.7,   -8.5,   -7.6,  999.0,   -9.6,  999.0,   -8.0,    2.5,    4.1,    7.1,    5.8,    4.0,  999.0,  999.0,  999.0,  999.0,  999.0,  999.0,  999.0,    5.4,  999.0,    6.6,    9.5,   12.2,  999.0,   14.1,   14.7,   14.9,   10.9,  999.0,  999.0,  999.0,  999.0,  999.0,  999.0,  999.0,   -0.6,   -0.0,   -0.2,   -0.3,   -0.3,    0.1,   -0.1,    0.1,   -0.2,    0.1,   -0.3,   -0.1,   -0.1,   -0.1,    0.2,    0.1,    0.2,   -0.1,   -0.1,    0.1,    0.1,   -0.3,   -0.1,   -0.0,    0.2,    0.0,   -0.0,    0.0,   -0.1,  999.0,    0.2,  999.0,  999.0,  999.0,    0.5,  999.0,  999.0,  999.0,  999.0,  999.0,  999.0,  999.0
2014/11/03 13:10,  999.0,    4.3,    2.1,    3.8,   -1.9,    0.1,   -0.5,    1.4,    1.0,    0.8,   -0.3,   -0.4,   -1.1,   -0.6,   -0.4,    0.4,    2.3,    5.6,    4.3,    4.8,    3.8,    3.4,  999.0,    7.3,    2.8,  999.0,  999.0,   16.7,   17.3,   21.7,   19.5,  999.0,  999.0,  999.0,  999.0,  999.0,  999.0,  999.0,  999.0,  999.0,  999.0,  999.0,  999.0,   -0.0,    0.2,   -0.3,   -0.0,    0.1,    0.3,    0.3,    0.1,    0.0,    0.1,    0.1,    0.1,    0.1,    0.1,   -0.1,   -0.1,   -0.2,   -0.1,   -0.0,   -0.1,   -0.2,   -0.0,   -0.0,  999.0,   -0.5,    0.1,  999.0,  999.0,  999.0,  999.0,  999.0,  999.0,  999.0,  999.0,  999.0,  999.0,  999.0
2014/11/03 13:20,  999.0,   -1.3,   -2.5,   -1.1,  999.0,  999.0,   -1.5,    0.9,    0.9,    2.3,    3.8,    6.0,    3.4,    2.7,    2.8,    9.1,    9.8,    7.5,    6.9,    9.4,    4.7,    8.5,   16.5,   18.7,   18.3,   21.2,   18.8,   15.7,  999.0,  999.0,  999.0,  999.0,  999.0,  999.0,  999.0,  999.0,  999.0,  999.0,  999.0,  999.0,  999.0,   -0.3,   -0.0,   -0.0,    0.1,  999.0,  999.0,  999.0,  999.0,  999.0,   -0.2,  999.0,   -0.0,  999.0,   -0.3,   -0.7,    0.1,    0.1,    0.1,   -0.1,   -0.3,    1.3,    0.0,    0.0,  999.0,  999.0,    0.1,  999.0,    0.0,  999.0,  999.0,  999.0,  999.0,  999.0,  999.0,  999.0,  999.0,  999.0,  999.0,  999.0
2014/11/03 13:30,  999.0,  999.0,    0.8,    2.3,    3.3,    1.6,    1.6,    2.0,    2.4,    3.7,    7.0,    7.5,    9.2,    5.7,   12.2,   16.6,   11.3,   16.4,   18.7,   23.1,   14.1,   11.0,   11.4,   13.8,   13.8,   17.9,   14.2,  999.0,   16.1,  999.0,  999.0,  999.0,  999.0,  999.0,  999.0,  999.0,  999.0,  999.0,  999.0,  999.0,  999.0,  999.0,  999.0,  999.0,  999.0,  999.0,  999.0,  999.0,  999.0,  999.0,  999.0,  999.0,  999.0,  999.0,   -0.0,  999.0,  999.0,  999.0,    0.1,    0.2,  999.0,    0.0,   -0.1,   -0.2,    0.0,    0.3,    0.1,   -0.4,  999.0,  999.0,    0.1,  999.0,  999.0,  999.0,  999.0,  999.0,  999.0,  999.0,  999.0,  999.0
2014/11/03 13:40,  999.0,  999.0,  999.0,   -1.6,    0.6,    2.1,  999.0,    4.2,    4.8,    3.3,    4.7,    3.6,    6.0,    6.0,    9.2,    9.0,    4.8,    5.1,   10.1,    9.2,    8.9,   11.8,   10.8,    9.1,    6.9,    6.3,    6.1,   11.3,  999.0,  999.0,  999.0,  999.0,  999.0,  999.0,   21.3,   27.5,   22.7,  999.0,  999.0,  999.0,  999.0,  999.0,  999.0,  999.0,  999.0,  999.0,   -0.1,   -0.6,   -0.3,    0.1,    0.0,    0.1,    0.2,    0.3,    0.1,   -0.0,   -0.1,   -0.3,   -0.3,    0.1,   -0.3,   -0.2,   -0.2,   -0.1,   -0.2,   -0.4,   -0.2,    0.2,  999.0,  999.0,  999.0,  999.0,  999.0,  999.0,  999.0,  999.0,  999.0,  999.0,  999.0,  999.0
2014/11/03 13:50,  999.0,    0.2,   -0.2,   -0.1,   -0.1,    0.1,   -0.1,   -0.1,   -0.1,    0.3,    1.4,    1.0,    1.3,    0.6,    0.8,    0.4,    0.3,   -0.0,   -0.2,   -0.2,   -0.3,   -0.1,   -0.2,   -0.3,   -0.3,   -1.1,   -1.3,   -0.5,   -0.3,   -0.4,   -1.3,   -1.1,   -2.1,   -1.5,   -1.5,   -0.6,  999.0,    0.1,   -0.1,    0.1,   -0.3,   -0.2,   -0.3,   -0.1,   -0.0,   -0.1,   -0.1,   -0.0,    0.1,    0.1,    0.0,    0.0,   -0.3,   -0.2,    0.1,    0.3,   -0.2,    0.1,   -0.1,    0.2,    0.1,   -0.1,   -0.0,    0.1,    0.1,    0.2,    0.0,   -0.1,   -0.1,    0.1,    0.2,  999.0,  999.0,  999.0,  999.0,  999.0,  999.0,  999.0,  999.0,  999.0
2014/11/03 14:00,  999.0,   -0.4,   -0.5,    1.1,    0.7,   -0.8,    0.1,   -0.0,    0.9,    0.4,    0.6,    0.3,    0.4,    0.9,    1.3,    0.1,   -0.1,   -0.3,   -0.2,   -0.3,    0.0,   -0.3,   -0.4,   -0.2,   -0.3,   -0.6,   -0.7,   -0.5,   -0.4,   -0.4,   -0.4,   -0.8,   -1.1,  999.0,   -0.2,   -0.3,  999.0,  999.0,    0.1,    0.1,   -0.4,   -0.3,   -0.1,   -0.1,   -0.2,    0.1,   -0.1,   -0.0,   -0.3,    0.2,    0.2,    0.2,   -0.1,   -0.0,   -0.1,   -0.2,    0.2,    0.2,    0.3,   -0.1,   -0.3,   -0.1,    0.1,    0.0,    0.0,   -0.2,   -0.1,   -0.1,   -0.2,   -0.1,    0.3,  999.0,   -0.1,  999.0,  999.0,  999.0,  999.0,  999.0,  999.0,  999.0
2014/11/03 14:10,  999.0,    0.2,   -0.3,   -0.2,    0.7,   -0.2,   -0.6,    0.1,    0.6,    0.1,    1.7,    0.9,    0.7,   -0.7,   -0.6,   -0.5,   -0.9,   -0.9,   -0.9,   -0.4,   -0.1,   -0.6,  999.0,    0.5,    0.2,   -1.5,   -0.7,   -0.8,   -0.6,   -1.0,   -0.6,   -0.6,   -0.1,   -0.0,    0.4,    0.2,  999.0,  999.0,    0.2,   -0.1,   -0.1,   -0.0,    0.0,    0.1,    0.2,   -0.1,   -0.2,   -0.2,   -0.1,   -0.1,   -0.1,   -0.2,   -0.3,   -0.3,    0.1,   -0.1,    0.2,    0.0,    0.2,   -0.1,    0.1,   -0.0,    0.1,    0.3,   -0.1,    0.2,   -0.1,  999.0,    0.3,  999.0,  999.0,  999.0,  999.0,  999.0,  999.0,  999.0,  999.0,  999.0,  999.0,  999.0
2014/11/03 14:20,  999.0,  999.0,  999.0,    0.1,    0.4,   -0.3,    3.5,    2.2,    2.1,    3.5,    4.4,    1.1,  999.0,  999.0,  999.0,  999.0,  999.0,  999.0,  999.0,  999.0,  999.0,  999.0,  999.0,  999.0,  999.0,  999.0,  999.0,    0.1,   -0.3,  999.0,   -1.2,    5.5,  999.0,  999.0,    7.8,  999.0,    0.2,  999.0,    0.1,   -0.3,   -0.5,   -0.4,   -0.2,   -0.5,   -0.3,   -0.1,   -0.1,    0.0,    0.0,  999.0,   -0.4,   -0.1,    0.1,   -0.2,    0.0,    0.1,    0.1,   -0.1,   -0.1,   -0.2,   -0.3,    0.1,    0.1,   -0.0,   -0.1,   -0.0,   -0.1,  999.0,  999.0,  999.0,  999.0,  999.0,  999.0,  999.0,  999.0,  999.0,  999.0,  999.0,  999.0,  999.0
2014/11/03 14:30,  999.0,  999.0,    0.5,    0.4,    0.4,   -0.0,    0.2,   -0.4,    1.6,    1.5,    1.6,    0.5,    0.6,    1.3,    0.9,    0.4,    0.0,    0.5,    0.6,    1.2,    1.2,  999.0,    1.0,    0.2,    0.2,   -0.0,  999.0,  999.0,  999.0,  999.0,  999.0,  999.0,  999.0,  999.0,  999.0,  999.0,  999.0,  999.0,  999.0,    0.1,   -0.2,   -0.1,   -0.0,   -0.0,   -0.1,   -0.1,    0.5,  999.0,    0.1,  999.0,   -0.2,    0.1,   -0.0,   -0.0,   -0.2,   -0.1,   -0.1,   -0.1,   -0.2,   -0.1,    0.2,   -0.0,   -0.1,   -0.1,   -0.2,   -0.3,    0.1,    0.0,    0.0,   -0.0,  999.0,  999.0,  999.0,  999.0,  999.0,  999.0,  999.0,  999.0,  999.0,  999.0
2014/11/03 14:40,  999.0,    0.1,    0.0,   -0.0,   -0.0,   -0.1,   -0.3,  999.0,  999.0,  999.0,  999.0,  999.0,  999.0,  999.0,  999.0,  999.0,  999.0,  999.0,   -0.1,   -0.0,   -0.0,   -0.2,   -0.4,   -0.4,   -0.3,    0.2,   -0.1,   -0.1,   -0.0,   -0.2,   -0.1,   -0.2,   -0.5,   -1.0,   -0.4,   -0.1,  999.0,  999.0,   -0.2,   -0.0,   -0.2,   -0.2,   -0.1,    0.0,    0.2,    0.1,    0.4,    0.1,   -0.3,    0.1,    0.4,    0.2,   -0.1,   -0.3,    0.2,   -0.1,    0.3,    0.1,   -0.6,   -0.1,    0.3,    0.2,    0.4,    0.1,    0.1,   -0.4,   -0.1,  999.0,  999.0,  999.0,  999.0,  999.0,  999.0,  999.0,  999.0,  999.0,  999.0,  999.0,  999.0,  999.0
2014/11/03 14:50,  999.0,   -0.3,    0.6,    0.1,    0.1,   -0.2,   -0.2,   -0.3,   -0.1,   -0.1,   -0.1,   -0.1,   -0.2,    0.0,    0.0,   -0.1,   -0.0,   -0.0,    0.1,    0.2,    0.1,    0.0,    0.4,    0.6,    0.7,    0.5,    1.1,    0.9,    0.3,    0.0,   -0.3,   -0.3,    0.1,   -0.2,   -0.9,  999.0,    0.2,  999.0,  999.0,  999.0,   -0.7,  999.0,    0.3,    0.2,   -0.1,    0.1,    0.1,    0.4,   -0.4,    0.1,    0.1,   -0.1,    0.1,    0.0,   -0.1,   -0.3,    0.1,  999.0,    0.1,    0.2,    0.0,   -0.2,   -0.1,    0.0,   -0.1,   -0.1,   -0.0,  999.0,   -0.1,  999.0,  999.0,  999.0,  999.0,  999.0,  999.0,  999.0,  999.0,  999.0,  999.0,  999.0
2014/11/03 15:00,  999.0,   -0.2,   -0.6,   -0.2,    0.1,    0.1,    0.1,   -0.1,   -0.1,   -0.3,    0.1,    0.5,    0.7,    0.2,    0.1,   -0.1,   -0.1,    0.1,   -0.1,   -0.1,    0.0,    0.1,    0.2,   -0.0,    0.1,    0.2,    0.6,    0.4,   -0.1,    0.0,   -0.6,   -0.4,   -0.3,  999.0,   -1.8,  999.0,   -0.4,  999.0,   -0.1,   -0.0,   -0.4,   -0.1,  999.0,   -0.1,    0.0,    0.0,   -0.1,   -0.2,    0.2,    0.2,    0.0,   -0.1,    0.3,   -0.3,   -0.3,   -0.0,   -0.1,   -0.3,   -0.3,   -0.4,    0.4,   -0.1,    0.1,    0.2,    0.2,   -0.0,    0.0,  999.0,   -0.2,  999.0,    0.1,  999.0,  999.0,    0.1,  999.0,  999.0,  999.0,  999.0,  999.0,  999.0
2014/11/03 15:10,  999.0,   -0.0,   -0.2,    0.2,   -0.1,   -0.2,   -0.3,   -0.1,   -0.9,  999.0,    2.5,    2.5,    2.9,    2.3,    1.0,    0.2,   -0.3,   -0.2,    0.1,    0.3,    0.1,   -0.1,   -0.3,   -0.5,   -0.3,   -0.4,   -0.2,   -0.4,   -0.4,   -0.2,   -1.4,   -1.2,   -0.8,  999.0,    0.2,    0.1,  999.0,    0.1,   -0.2,   -0.0,   -0.2,  999.0,    0.3,    0.1,   -0.0,    0.1,   -0.1,   -0.1,   -0.1,    0.1,   -0.1,   -0.0,    0.2,   -0.0,   -0.2,   -0.3,   -0.3,   -0.2,   -0.3,    0.3,   -0.0,   -0.0,   -0.0,    0.2,    0.3,   -0.1,   -0.0,   -0.2,   -0.2,  999.0,    0.2,  999.0,  999.0,  999.0,  999.0,  999.0,  999.0,  999.0,  999.0,  999.0
2014/11/03 15:20,  999.0,    0.2,   -0.3,    0.1,    0.0,    0.2,    0.0,  999.0,   -0.2,   -0.2,    0.3,    0.8,    0.3,    0.5,    0.7,    0.6,    0.2,    0.1,   -0.1,    0.0,   -0.1,   -0.1,    0.0,   -0.2,   -0.1,    0.0,   -0.2,   -0.0,    0.1,   -0.0,   -0.0,   -0.4,   -1.4,   -0.5,   -0.4,    0.0,  999.0,  999.0,   -0.1,   -0.2,   -0.1,   -0.0,    0.2,   -0.1,    0.0,   -0.0,    0.1,    0.0,   -0.1,   -0.3,    0.1,    0.1,    0.2,    0.1,   -0.0,    0.1,   -0.0,    0.0,    0.1,    0.2,   -0.1,   -0.1,   -0.2,    0.2,   -0.1,   -0.1,    0.1,    0.2,    0.3,  999.0,  999.0,  999.0,  999.0,  999.0,  999.0,  999.0,  999.0,  999.0,  999.0,  999.0
2014/11/03 15:30,  999.0,   -0.4,   -1.0,   -0.4,   -0.1,    0.2,   -0.1,   -0.2,   -0.1,   -0.1,   -0.1,    0.2,    0.4,    0.4,    0.3,    0.3,    0.3,    0.1,   -0.3,   -0.1,   -0.3,   -0.4,    0.2,   -0.0,    0.0,    0.1,    0.4,    0.0,   -0.1,   -0.1,   -0.3,   -1.0,   -1.1,  999.0,   -0.5,   -0.2,   -0.2,   -0.0,  999.0,   -0.1,   -0.2,   -0.1,    0.0,   -0.1,   -0.2,   -0.3,    0.0,    0.1,    0.0,    0.0,    0.1,    0.0,   -0.2,    0.1,   -0.1,    0.0,    0.1,    0.1,   -0.1,   -0.0,   -0.1,   -0.1,   -0.0,   -0.2,   -0.1,   -0.1,    0.0,   -0.3,  999.0,  999.0,  999.0,  999.0,  999.0,  999.0,  999.0,  999.0,  999.0,  999.0,  999.0,  999.0
2014/11/03 15:40,  999.0,   -0.1,   -0.0,    0.1,    0.6,    0.1,   -0.1,   -0.3,   -0.1,    0.8,    0.3,    0.3,    0.5,   -0.2,   -0.3,   -0.4,   -0.2,   -0.1,   -0.0,   -0.0,   -0.0,   -0.1,   -0.2,   -0.2,   -0.2,   -0.0,    0.1,    0.3,    0.2,   -0.2,   -0.0,   -0.1,   -1.1,   -1.7,   -0.7,    0.2,    0.2,  999.0,    0.0,    0.1,   -0.2,   -0.3,   -0.1,   -0.1,   -0.1,   -0.2,   -0.1,   -0.1,   -0.1,    0.2,   -0.2,    0.1,    0.0,    0.1,   -0.0,   -0.1,   -0.3,    0.1,    0.1,    0.0,   -0.2,   -0.1,   -0.1,   -0.0,   -0.2,    0.1,    0.0,   -0.1,    0.1,   -0.7,    0.0,    0.2,   -0.3,  999.0,  999.0,  999.0,  999.0,  999.0,  999.0,  999.0
2014/11/03 15:50,  999.0,    0.0,    0.5,   -0.3,    0.2,    0.1,    0.3,    0.8,    0.2,    0.3,    0.3,    1.0,    0.8,    1.3,    0.5,    0.2,    0.6,    0.1,   -0.0,   -0.2,   -0.2,   -0.0,   -0.0,   -0.1,   -0.3,   -0.3,   -0.2,   -0.3,   -0.4,   -0.1,   -0.1,   -0.5,   -0.3,   -0.1,  999.0,   -0.4,    0.1,   -0.2,  999.0,    0.1,   -0.6,   -0.4,   -0.0,    0.2,   -0.0,    0.1,    0.1,   -0.2,    0.0,  999.0,   -0.1,    0.2,    0.3,   -0.0,   -0.2,   -0.4,   -0.1,   -0.4,   -0.3,   -0.2,   -0.1,   -0.2,   -0.5,   -0.4,   -0.1,   -0.1,   -0.2,   -0.0,    0.2,    0.3,   -0.2,    0.2,    0.1,  999.0,  999.0,  999.0,  999.0,  999.0,  999.0,  999.0
2014/11/03 16:00,  999.0,    0.3,   -0.5,    0.2,   -0.0,    0.8,    0.5,   -0.6,   -0.7,  999.0,    1.7,  999.0,    2.6,    2.8,  999.0,    0.7,    1.1,   -0.4,   -0.5,   -0.6,   -0.3,   -0.5,   -0.3,   -0.7,   -0.7,   -0.2,   -0.6,   -0.3,   -0.1,   -0.0,    0.1,    0.1,   -0.3,   -0.1,  999.0,   -1.0,   -0.5,   -0.5,   -0.1,   -0.1,   -0.6,  999.0,   -0.0,  999.0,   -0.0,   -0.0,    0.1,    0.0,   -0.2,   -0.3,    0.2,   -0.2,   -0.1,   -0.1,   -0.0,    0.3,    0.2,    0.0,    0.1,   -0.0,    0.1,    0.1,    0.2,    0.1,   -0.0,   -0.1,   -0.0,    0.1,   -0.1,  999.0,  999.0,  999.0,  999.0,  999.0,  999.0,  999.0,  999.0,  999.0,  999.0,  999.0
2014/11/03 16:10,  999.0,   -0.1,   -0.8,   -0.1,    0.2,    0.1,   -0.3,    0.1,  999.0,  999.0,    0.5,    1.4,    1.5,  999.0,   -0.2,   -0.1,   -0.3,   -0.4,   -0.1,   -0.3,   -0.4,   -0.5,   -0.7,   -0.5,   -0.2,   -0.1,    0.1,    0.3,    0.2,    0.4,   -0.1,    0.0,   -0.3,    0.4,    1.0,    1.1,   -0.1,   -0.3,   -0.2,   -0.1,   -0.6,   -0.0,    0.5,    0.0,    0.2,    0.0,    0.0,    0.2,    0.0,   -0.2,   -0.0,   -0.0,   -0.1,    0.1,   -0.1,   -0.1,    0.0,   -0.1,   -0.0,   -0.2,   -0.1,   -0.1,    0.1,    0.1,   -0.1,    0.0,   -0.1,   -0.3,  999.0,  999.0,   -0.4,  999.0,   -0.0,   -0.2,  999.0,  999.0,  999.0,  999.0,  999.0,  999.0
2014/11/03 16:20,  999.0,    0.0,   -0.1,   -0.0,    0.2,    0.1,    0.1,   -0.1,    0.0,    0.2,    0.3,    0.4,    0.1,   -0.1,    0.1,    0.1,   -0.1,    0.1,   -0.1,    0.1,   -0.1,    0.2,   -0.2,   -0.1,   -0.2,   -0.1,    0.1,    0.0,   -0.2,   -0.3,    0.0,   -0.1,   -0.4,    0.4,  999.0,  999.0,  999.0,  999.0,   -0.0,  999.0,   -0.3,   -0.1,    0.1,    0.0,    0.1,   -0.1,    0.1,   -0.0,   -0.1,    0.1,    0.1,    0.1,    0.1,    0.1,    0.1,   -0.0,    0.2,    0.0,    0.1,    0.1,   -0.0,   -0.5,   -0.1,   -0.0,   -0.1,    0.2,   -0.3,  999.0,   -0.3,    0.2,   -0.2,  999.0,    0.0,  999.0,  999.0,  999.0,  999.0,  999.0,  999.0,  999.0
2014/11/03 16:30,  999.0,   -0.2,   -0.2,   -0.1,   -0.0,    0.1,   -0.1,   -0.1,   -0.0,    0.6,   -0.1,   -0.1,    0.1,   -0.1,   -0.2,   -0.1,   -0.1,   -0.2,   -0.0,   -0.3,   -0.6,   -0.8,   -0.7,   -0.7,   -0.5,   -0.2,   -0.6,    0.1,    0.0,   -0.1,   -0.3,   -0.2,   -0.1,  999.0,  999.0,   -0.3,   -0.3,   -0.2,   -0.2,   -0.2,   -0.3,   -0.3,   -0.0,   -0.1,    0.1,   -0.1,    0.0,    0.1,   -0.0,   -0.3,   -0.0,    0.1,    0.3,    0.3,    0.2,    0.1,    0.0,    0.1,    0.1,    0.3,    0.0,   -0.4,   -0.0,   -0.2,   -0.1,    0.1,    0.0,   -0.1,  999.0,  999.0,  999.0,    0.1,  999.0,    0.0,  999.0,  999.0,  999.0,  999.0,  999.0,  999.0
2014/11/03 16:40,  999.0,    0.6,    0.2,    0.1,   -0.1,   -0.1,   -0.3,   -0.2,   -0.1,    0.1,   -0.1,   -0.2,   -0.5,    0.2,    0.4,   -0.1,   -0.1,    0.3,    0.6,   -0.1,  999.0,  999.0,  999.0,  999.0,  999.0,  999.0,  999.0,    0.7,   -0.5,   -1.2,   -0.5,   -0.5,   -0.8,  999.0,   -0.7,  999.0,  999.0,  999.0,    0.1,  999.0,   -0.2,   -0.2,  999.0,   -0.1,   -0.0,   -0.2,   -0.0,    0.2,    0.1,    0.1,   -0.1,   -0.2,   -0.1,   -0.0,    0.1,    0.1,   -0.0,   -0.0,    0.1,    0.1,   -0.1,    0.1,  999.0,    0.1,   -0.4,    0.1,    0.4,    0.0,  999.0,  999.0,   -0.2,  999.0,  999.0,  999.0,  999.0,  999.0,  999.0,  999.0,  999.0,  999.0
2014/11/03 16:50,  999.0,  999.0,    0.3,    0.4,    0.6,    0.1,  999.0,  999.0,  999.0,  999.0,  999.0,    1.4,   -0.1,    0.9,   -0.4,    0.2,    0.0,   -0.0,   -0.2,   -0.5,   -0.6,   -0.6,   -1.3,   -0.5,   -0.4,   -0.5,   -0.4,    0.0,   -0.5,   -0.3,   -0.2,   -0.3,   -1.5,   -2.5,   -1.2,  999.0,  999.0,  999.0,  999.0,  999.0,  999.0,  999.0,   -0.3,  999.0,   -0.2,    0.0,    0.2,  999.0,  999.0,  999.0,   -0.4,  999.0,   -0.2,   -0.2,    0.2,    0.0,  999.0,  999.0,    0.0,    0.3,   -0.1,    0.1,   -0.2,    0.0,  999.0,   -0.1,  999.0,  999.0,    0.1,  999.0,  999.0,  999.0,  999.0,  999.0,  999.0,  999.0,  999.0,  999.0,  999.0,  999.0
2014/11/03 17:00,  999.0,   -1.2,    1.1,    0.3,    0.1,    1.4,    0.8,   -0.2,    0.1,    0.9,    1.3,    0.9,    0.0,    0.5,    0.3,    0.2,    0.1,   -0.3,   -0.3,   -0.2,   -0.2,   -0.9,  999.0,   -2.4,   -2.1,   -2.1,   -2.8,   -2.0,   -0.6,  999.0,   -0.7,   -0.7,  999.0,  999.0,   -1.0,  999.0,  999.0,    0.0,   -0.1,   -0.1,   -0.5,   -0.5,   -0.4,  999.0,   -0.0,    0.0,  999.0,    0.2,    0.1,  999.0,  999.0,   -0.2,  999.0,  999.0,    0.0,   -0.2,   -0.4,   -0.6,    0.3,  999.0,    0.4,  999.0,  999.0,  999.0,  999.0,  999.0,  999.0,  999.0,   -0.2,  999.0,    0.2,  999.0,  999.0,  999.0,  999.0,  999.0,  999.0,  999.0,  999.0,  999.0
2014/11/03 17:10,  999.0,   -0.3,   -0.4,    1.2,    0.8,    0.6,    1.0,   -0.1,    0.5,    0.5,    0.9,   -2.3,  999.0,    2.3,   -0.2,  999.0,    0.5,   -0.3,  999.0,   -0.1,   -1.3,   -0.1,  999.0,   -1.2,   -1.5,  999.0,  999.0,  999.0,  999.0,  999.0,  999.0,  999.0,  999.0,   -3.3,  999.0,   -0.3,  999.0,  999.0,  999.0,  999.0,  999.0,  999.0,  999.0,  999.0,  999.0,    0.1,  999.0,  999.0,  999.0,  999.0,  999.0,  999.0,  999.0,  999.0,    0.0,  999.0,    0.2,   -0.1,   -0.6,  999.0,   -0.4,  999.0,    0.1,   -0.5,    0.1,    0.2,  999.0,  999.0,  999.0,  999.0,  999.0,  999.0,  999.0,  999.0,  999.0,  999.0,  999.0,  999.0,  999.0,  999.0
2014/11/03 17:20,  999.0,  999.0,   -1.7,   -0.3,   -0.6,    3.4,    3.1,    1.8,   -0.6,    0.5,  999.0,  999.0,    3.4,    0.1,    0.1,    0.2,    0.7,   -0.6,   -0.5,   -0.2,   -0.0,   -0.2,   -0.1,   -0.3,   -0.6,   -0.0,   -0.0,   -0.4,   -0.4,  999.0,   -0.1,  999.0,  999.0,  999.0,  999.0,   -0.6,   -0.1,  999.0,  999.0,   -0.1,   -0.7,  999.0,  999.0,    0.3,   -0.2,    0.2,   -0.3,  999.0,    0.1,   -0.3,  999.0,   -0.0,  999.0,  999.0,  999.0,   -0.1,  999.0,  999.0,    0.3,    0.5,    0.6,  999.0,    0.2,  999.0,   -0.7,   -0.1,  999.0,  999.0,  999.0,  999.0,  999.0,  999.0,   -0.3,  999.0,  999.0,  999.0,  999.0,  999.0,  999.0,  999.0
2014/11/03 17:30,  999.0,    0.5,    1.2,    0.4,    0.8,   -0.1,    0.9,    0.1,   -0.6,   -1.3,    0.1,    1.0,   -0.5,    0.8,    0.3,    0.3,   -0.0,   -0.0,   -0.0,   -0.1,   -0.1,   -0.4,   -0.7,   -0.5,   -0.5,   -0.2,   -0.4,   -0.4,    0.1,   -0.4,   -0.3,   -0.1,   -0.4,  999.0,   -0.3,  999.0,   -0.5,   -0.1,    0.0,   -0.2,  999.0,    0.1,    0.2,  999.0,  999.0,  999.0,    0.1,   -0.3,   -0.1,   -0.1,    0.1,   -0.1,   -0.1,   -0.0,    0.2,    0.0,   -0.3,    0.0,   -0.1,    0.2,    0.0,   -0.2,   -0.3,    0.5,  999.0,    0.1,   -0.1,    0.0,    0.1,  999.0,  999.0,  999.0,  999.0,  999.0,  999.0,  999.0,  999.0,  999.0,  999.0,  999.0
2014/11/03 17:40,  999.0,  999.0,   -0.3,   -0.1,    0.1,    0.1,   -0.0,   -0.2,    0.1,   -0.4,    0.3,    0.7,    0.5,    0.3,    0.3,    0.1,   -0.1,   -0.2,   -0.1,    0.1,    0.0,   -0.1,    0.0,   -0.3,   -0.3,   -0.0,   -0.1,    0.0,   -0.1,    0.0,   -0.1,   -0.2,   -0.3,   -1.3,   -0.8,   -0.3,  999.0,   -0.2,   -0.6,  999.0,   -0.8,  999.0,   -0.3,   -0.4,  999.0,   -0.2,    0.1,  999.0,    0.0,    0.4,  999.0,    0.1,  999.0,    0.0,    0.1,    0.2,   -0.1,   -0.1,   -0.3,   -0.2,   -0.1,   -0.4,    0.1,   -0.0,    0.2,   -0.1,    0.0,    0.8,    0.1,  999.0,  999.0,  999.0,  999.0,  999.0,  999.0,  999.0,  999.0,  999.0,  999.0,  999.0
2014/11/03 17:50,  999.0,  999.0,    0.2,    0.2,    0.3,    0.4,    2.0,    0.7,   -0.0,   -0.1,   -0.4,   -0.3,   -0.1,    0.1,   -0.1,    0.1,    0.2,    0.1,   -0.0,   -0.3,   -0.2,    0.1,    0.1,    0.2,    0.3,    0.0,    0.1,   -0.0,   -0.1,    0.0,    0.1,    0.1,   -0.0,   -0.1,   -0.4,   -0.4,  999.0,    0.3,    0.3,   -0.5,   -0.8,   -0.4,    0.4,   -0.2,   -0.2,    0.1,    0.1,   -0.4,    0.3,    0.2,  999.0,   -0.2,  999.0,    0.1,   -0.1,    0.1,   -0.3,   -0.1,    0.1,   -0.2,    0.1,    0.1,   -0.1,   -0.0,   -0.3,  999.0,    0.1,   -0.0,    0.2,  999.0,  999.0,  999.0,  999.0,  999.0,  999.0,  999.0,  999.0,  999.0,  999.0,  999.0
2014/11/03 18:00,  999.0,  999.0,  999.0,   -0.1,   -0.2,   -0.0,   -0.2,   -0.0,    0.2,    0.3,    0.1,    0.3,    0.0,    0.3,    0.1,    0.1,    0.1,    0.0,   -0.1,   -0.1,    0.0,   -0.0,   -0.0,   -0.1,   -0.0,   -0.0,   -0.0,   -0.2,    0.1,   -0.1,   -0.4,   -0.2,   -1.4,   -1.9,   -0.9,  999.0,  999.0,  999.0,    0.3,    0.3,   -0.2,   -0.3,   -0.4,   -0.2,    0.0,   -0.1,  999.0,   -0.1,   -0.3,    0.0,    0.1,   -0.2,    0.3,   -0.1,  999.0,    0.2,    0.2,    0.3,   -0.1,   -0.1,   -0.2,    0.2,    0.0,   -0.4,   -0.1,    0.2,  999.0,  999.0,  999.0,  999.0,  999.0,  999.0,  999.0,  999.0,  999.0,  999.0,  999.0,  999.0,  999.0,  999.0
2014/11/03 18:10,  999.0,  999.0,   -0.0,   -0.3,   -0.1,    0.1,   -0.1,   -0.2,  999.0,    0.0,    0.1,   -0.1,   -0.2,   -0.2,    0.1,    0.1,    0.3,    0.2,    0.1,   -0.1,   -0.1,   -0.1,   -0.2,   -0.2,    0.1,    0.1,    0.0,    0.0,    0.1,   -0.1,   -0.1,   -0.4,   -0.4,   -0.9,  999.0,   -0.5,  999.0,    0.3,  999.0,  999.0,   -0.3,   -0.2,   -0.3,   -0.1,   -0.2,   -0.0,   -0.2,    0.4,    0.5,  999.0,   -0.1,   -0.2,    0.1,    0.2,    0.2,    0.1,   -0.2,   -0.1,   -0.5,   -0.3,   -0.1,    0.1,  999.0,    0.3,   -0.1,   -0.2,    0.3,  999.0,  999.0,  999.0,  999.0,  999.0,    0.0,  999.0,  999.0,  999.0,  999.0,  999.0,  999.0,  999.0
2014/11/03 18:20,  999.0,  999.0,   -0.4,   -0.1,   -0.0,    0.1,   -0.1,   -0.0,   -0.0,   -0.2,   -0.1,    0.1,   -0.1,   -0.1,   -0.0,    0.1,    0.0,   -0.0,   -0.0,   -0.2,   -0.2,   -0.1,   -0.2,   -0.1,   -0.1,    0.0,   -0.0,    0.1,    0.0,   -0.0,   -0.1,    0.0,   -0.4,   -0.7,   -2.4,   -0.9,   -0.1,  999.0,  999.0,    0.1,   -0.5,   -0.0,    0.2,    0.2,   -0.0,   -0.1,    0.1,   -0.1,   -0.1,    0.2,  999.0,   -0.0,  999.0,    0.2,    0.0,   -0.2,    0.3,    0.2,   -0.0,   -0.2,   -0.2,    0.3,    0.3,    0.3,   -0.0,  999.0,    0.1,   -0.1,  999.0,  999.0,  999.0,  999.0,  999.0,  999.0,  999.0,  999.0,  999.0,  999.0,  999.0,  999.0
2014/11/03 18:30,  999.0,  999.0,   -0.2,   -0.2,    0.3,  999.0,    0.1,   -0.2,   -0.2,    0.4,    0.5,    0.1,    0.1,    0.1,   -0.0,    0.2,   -0.2,   -0.1,   -0.2,   -0.2,    0.1,    0.1,   -0.3,   -0.2,    0.1,    0.1,    0.0,    0.1,   -0.1,    0.0,    0.0,   -0.0,   -0.0,    0.1,   -1.5,   -1.4,   -0.3,    0.3,    0.0,    0.1,   -0.3,   -0.0,  999.0,    0.0,    0.1,   -0.1,    0.0,  999.0,    0.2,    0.2,   -0.1,   -0.3,    0.2,    0.0,   -0.2,    0.1,    0.1,   -0.0,   -0.1,    0.1,   -0.0,   -0.0,   -0.2,   -0.1,    0.0,  999.0,    0.0,   -0.5,  999.0,  999.0,  999.0,  999.0,  999.0,  999.0,  999.0,  999.0,  999.0,  999.0,  999.0,  999.0
2014/11/03 18:40,  999.0,  999.0,   -0.1,    0.1,    0.5,    0.1,    0.1,   -0.0,    0.2,   -0.1,    0.1,    0.4,    0.3,    0.4,  999.0,    0.1,    0.1,    0.2,    0.2,    0.1,   -0.0,   -0.2,    0.1,   -0.1,   -0.1,   -0.2,   -0.1,   -0.0,    0.0,   -0.1,   -0.0,   -0.1,   -0.0,   -0.3,   -0.0,    0.1,  999.0,  999.0,   -0.1,   -0.1,   -0.2,   -0.3,   -0.2,   -0.3,   -0.1,   -0.1,   -0.2,   -0.2,   -0.1,  999.0,   -0.2,    0.2,   -0.1,   -0.1,   -0.0,    0.1,    0.1,    0.2,   -0.3,    0.1,   -0.1,    0.1,   -0.1,   -0.1,   -0.1,  999.0,   -0.0,  999.0,  999.0,    0.1,  999.0,  999.0,  999.0,  999.0,  999.0,  999.0,  999.0,  999.0,  999.0,  999.0
2014/11/03 18:50,  999.0,  999.0,    0.0,   -0.1,   -0.3,  999.0,   -0.4,  999.0,   -0.6,   -0.4,    0.1,  999.0,    0.2,    0.2,    0.1,   -0.6,   -0.2,    0.2,    0.1,   -0.0,   -0.2,   -0.1,   -0.1,   -0.1,    0.0,    0.0,    0.1,   -0.1,    0.1,   -0.2,   -0.1,   -0.0,   -0.1,   -0.4,   -0.2,   -0.1,   -0.4,   -0.2,    0.1,   -0.2,   -0.3,   -0.3,   -0.2,   -0.1,    0.1,   -0.2,   -0.2,    0.1,   -0.1,  999.0,   -0.2,   -0.1,    0.1,    0.1,    0.1,    0.0,    0.0,   -0.0,   -0.1,   -0.2,    0.1,   -0.0,   -0.1,   -0.1,   -0.0,    0.1,    0.2,    0.1,  999.0,  999.0,  999.0,  999.0,  999.0,  999.0,  999.0,  999.0,  999.0,  999.0,  999.0,  999.0
2014/11/03 19:00,  999.0,  999.0,  999.0,  999.0,  999.0,  999.0,  999.0,  999.0,    0.5,    0.6,  999.0,   -0.3,    0.2,    0.0,    0.4,   -0.0,    0.2,   -0.1,    0.0,   -0.2,    0.1,   -0.0,   -0.7,   -0.1,   -0.1,   -0.0,   -0.4,   -0.1,    0.2,   -0.2,   -0.0,   -0.0,   -0.2,   -0.3,   -0.0,  999.0,   -0.1,  999.0,   -0.2,  999.0,   -0.4,   -0.2,   -0.1,    0.1,   -0.2,    0.1,   -0.1,  999.0,   -0.3,   -0.1,   -0.1,  999.0,   -0.1,    0.2,   -0.1,   -0.1,   -0.1,   -0.1,    0.0,    0.1,    0.1,    0.2,    0.2,   -0.2,   -0.4,    0.3,  999.0,  999.0,  999.0,  999.0,  999.0,  999.0,  999.0,  999.0,  999.0,  999.0,  999.0,  999.0,  999.0,  999.0
2014/11/03 19:10,  999.0,  999.0,    0.0,    0.2,    0.3,    0.3,   -0.1,   -0.1,    0.2,    0.1,   -0.3,  999.0,  999.0,    0.3,   -0.2,   -0.2,  999.0,    0.2,    0.0,  999.0,   -0.6,   -0.7,   -0.3,   -0.1,  999.0,   -0.2,   -0.1,   -0.3,   -0.2,   -0.2,   -0.0,   -0.1,   -0.1,   -0.7,   -0.3,  999.0,   -0.1,   -0.0,   -0.0,  999.0,   -0.1,   -0.3,  999.0,    0.1,   -0.0,    0.0,   -0.1,    0.1,   -0.1,    0.3,  999.0,   -0.1,   -0.2,    0.2,    0.1,   -0.2,    0.4,    0.3,   -0.0,  999.0,  999.0,    0.1,   -0.2,   -0.0,  999.0,  999.0,  999.0,  999.0,  999.0,  999.0,  999.0,  999.0,  999.0,  999.0,  999.0,  999.0,  999.0,  999.0,  999.0,  999.0
2014/11/03 19:20,  999.0,  999.0,  999.0,  999.0,  999.0,  999.0,  999.0,  999.0,  999.0,  999.0,  999.0,  999.0,   -0.1,  999.0,    0.1,    0.2,   -0.2,   -0.6,  999.0,   -0.0,   -0.4,    6.9,   -0.7,   -0.2,  999.0,   -0.5,   -0.2,   -0.1,   -0.4,   -0.4,    0.1,  999.0,  999.0,  999.0,  999.0,  999.0,  999.0,  999.0,  999.0,  999.0,  999.0,  999.0,  999.0,  999.0,  999.0,  999.0,  999.0,  999.0,  999.0,  999.0,  999.0,  999.0,  999.0,  999.0,    0.0,  999.0,    0.0,   -0.1,   -0.0,   -0.1,  999.0,  999.0,    0.2,    0.0,   -0.0,  999.0,  999.0,  999.0,  999.0,  999.0,  999.0,  999.0,  999.0,  999.0,  999.0,  999.0,  999.0,  999.0,  999.0,  999.0
2014/11/03 19:30,  999.0,  999.0,    0.9,   -0.1,    0.4,   -0.4,    0.3,   -0.2,  999.0,   10.1,    4.0,   10.4,    6.0,   19.3,   16.3,   15.4,   14.0,   15.9,   15.7,   16.2,   15.8,   16.2,   18.0,   23.3,   24.8,   24.4,   24.2,   24.5,   25.2,  999.0,  999.0,  999.0,  999.0,  999.0,  999.0,  999.0,  999.0,  999.0,  999.0,    0.3,    0.3,   -0.2,    0.2,    0.2,    0.3,   -0.0,    0.0,  999.0,  999.0,  999.0,   -0.1,    0.0,   -0.2,    0.2,    0.3,    0.2,    0.0,   -0.2,    0.3,    0.3,    0.4,  999.0,  999.0,  999.0,  999.0,  999.0,  999.0,  999.0,  999.0,  999.0,  999.0,  999.0,  999.0,  999.0,  999.0,  999.0,  999.0,  999.0,  999.0,  999.0
2014/11/03 19:40,  999.0,  999.0,  999.0,  999.0,  999.0,  999.0,  999.0,  999.0,  999.0,   11.6,   15.8,   17.0,   17.8,   16.2,   19.3,   20.7,   20.3,   19.9,   23.4,   24.2,   25.5,   25.8,   21.8,   26.0,   26.0,   26.7,   27.7,   28.6,   30.2,  999.0,  999.0,  999.0,  999.0,  999.0,  999.0,  999.0,  999.0,  999.0,    0.1,    0.0,   -0.1,   -0.2,    0.1,    0.1,    0.1,    0.2,   -0.0,   -0.1,    0.0,   -0.1,    0.1,    0.1,    0.2,    0.0,    0.0,   -0.2,   -0.1,    0.1,    0.2,    0.3,   -0.1,    0.1,    0.1,    0.2,   -0.2,  999.0,  999.0,  999.0,    0.2,  999.0,  999.0,  999.0,  999.0,  999.0,  999.0,  999.0,  999.0,  999.0,  999.0,  999.0
2014/11/03 19:50,  999.0,  999.0,  999.0,    0.1,    0.1,    0.3,    0.1,    0.1,    2.7,    3.9,  999.0,  999.0,  999.0,   21.3,   23.6,   23.5,   25.8,   26.0,   29.2,   29.7,   28.1,   31.6,   34.9,   40.9,   39.9,   39.7,   35.1,  999.0,  999.0,  999.0,  999.0,  999.0,  999.0,  999.0,   -0.7,   -0.4,   -0.4,    0.1,   -0.1,   -0.1,    0.1,   -0.1,   -0.2,    0.1,    0.0,   -0.2,   -0.0,    0.1,    0.1,    0.1,   -0.1,   -0.1,   -0.2,    0.1,    0.1,    0.1,    0.0,   -0.0,   -0.0,    0.1,    0.2,   -0.1,    0.1,    0.1,    0.2,    0.3,   -0.4,  999.0,  999.0,  999.0,  999.0,  999.0,   -0.2,    0.0,  999.0,  999.0,  999.0,  999.0,  999.0,  999.0
2014/11/03 20:00,  999.0,  999.0,  999.0,  999.0,  999.0,  999.0,  999.0,  999.0,  999.0,  999.0,    3.3,    5.4,    9.4,    8.2,  999.0,    8.9,    8.6,    6.9,   17.1,   22.2,   22.6,   24.7,  999.0,  999.0,  999.0,  999.0,  999.0,  999.0,  999.0,  999.0,  999.0,  999.0,  999.0,    0.0,    7.7,  999.0,  999.0,  999.0,   -0.0,    0.0,   -0.0,    0.0,  999.0,   -0.0,   -0.2,    0.3,    0.0,    0.2,   -0.1,   -0.1,   -0.1,   -0.1,    0.1,    0.0,   -0.2,   -0.0,    0.0,   -0.0,    0.1,    0.1,    0.7,    0.2,  999.0,    0.1,   -0.3,  999.0,  999.0,  999.0,  999.0,  999.0,  999.0,  999.0,  999.0,  999.0,  999.0,  999.0,  999.0,  999.0,  999.0,  999.0
2014/11/03 20:10,  999.0,  999.0,    0.8,    0.5,   -1.1,  999.0,  999.0,  999.0,  999.0,  999.0,  999.0,   -1.1,    1.9,    0.6,    4.7,    2.0,  999.0,    0.8,    1.2,   -0.2,    2.9,    5.2,  999.0,   -5.9,  999.0,  999.0,   -9.5,   -1.2,   -7.7,   -7.0,   -7.4,   -0.0,   -0.2,   -2.5,   -0.1,   -0.2,  999.0,    0.1,   -0.9,  999.0,   -0.3,   -0.4,   -0.3,  999.0,    0.4,    0.2,    0.1,   -0.2,  999.0,   -0.3,   -0.2,  999.0,    0.2,   -0.1,    0.0,   -0.2,   -0.4,   -0.5,  999.0,   -0.3,   -0.2,  999.0,   -0.1,   -0.0,  999.0,  999.0,    0.2,  999.0,  999.0,  999.0,    0.1,  999.0,  999.0,   -0.1,  999.0,  999.0,  999.0,  999.0,  999.0,  999.0
2014/11/03 20:20,  999.0,  999.0,  999.0,  999.0,  999.0,  999.0,  999.0,  999.0,  999.0,    4.7,    4.9,    5.0,    5.7,    3.5,    2.8,    4.5,    0.6,    2.1,  999.0,    3.8,    4.5,  999.0,  999.0,    4.8,    5.0,    4.9,    1.4,    2.5,    2.3,    2.7,   -0.5,   -0.1,  999.0,  999.0,  999.0,  999.0,  999.0,  999.0,  999.0,  999.0,   -0.5,  999.0,  999.0,  999.0,   -0.2,   -0.0,    0.0,  999.0,    0.2,    0.1,  999.0,  999.0,   -0.1,  999.0,  999.0,  999.0,    0.3,    0.4,  999.0,    0.2,  999.0,    0.2,    0.0,    0.2,  999.0,   -0.2,  999.0,  999.0,  999.0,  999.0,  999.0,  999.0,    0.0,  999.0,  999.0,  999.0,  999.0,  999.0,  999.0,  999.0
2014/11/03 20:30,  999.0,  999.0,  999.0,  999.0,  999.0,  999.0,  999.0,  999.0,  999.0,    0.8,    1.0,   -3.8,   -0.2,    1.8,    4.7,    4.1,  999.0,  999.0,  999.0,    7.0,  999.0,  999.0,  999.0,  999.0,   15.2,  999.0,  999.0,  999.0,  999.0,  999.0,  999.0,  999.0,  999.0,  999.0,  999.0,  999.0,  999.0,  999.0,  999.0,  999.0,  999.0,  999.0,  999.0,   -0.4,   -0.0,    0.0,   -0.0,   -0.1,   -0.4,    0.2,    0.1,    0.3,  999.0,  999.0,  999.0,  999.0,   -0.0,   -0.2,   -0.3,   -0.1,   -0.2,  999.0,  999.0,    0.5,  999.0,    0.2,  999.0,  999.0,  999.0,  999.0,  999.0,   -0.0,  999.0,    0.1,  999.0,  999.0,  999.0,  999.0,  999.0,  999.0
2014/11/03 20:40,  999.0,  999.0,  999.0,  999.0,  999.0,  999.0,  999.0,  999.0,  999.0,  999.0,   -4.5,   -3.6,   -0.9,   -1.8,  999.0,  999.0,  999.0,  999.0,  999.0,  999.0,  999.0,  999.0,  999.0,  999.0,  999.0,  999.0,  999.0,  999.0,  999.0,  999.0,  999.0,  999.0,  999.0,  999.0,  999.0,  999.0,  999.0,  999.0,  999.0,  999.0,  999.0,  999.0,  999.0,    0.1,  999.0,  999.0,  999.0,    0.0,  999.0,  999.0,  999.0,  999.0,  999.0,  999.0,  999.0,  999.0,   -0.2,  999.0,  999.0,  999.0,  999.0,  999.0,  999.0,  999.0,  999.0,  999.0,  999.0,  999.0,  999.0,  999.0,  999.0,  999.0,  999.0,  999.0,  999.0,  999.0,  999.0,  999.0,  999.0,  999.0
2014/11/03 20:50,  999.0,    0.3,    0.1,  999.0,  999.0,    0.1,   -0.2,   -0.2,  999.0,    5.1,  999.0,  999.0,    3.9,    6.4,    6.3,    9.2,    6.8,  999.0,   12.5,  999.0,   12.4,  999.0,  999.0,  999.0,  999.0,  999.0,  999.0,  999.0,  999.0,  999.0,  999.0,  999.0,  999.0,  999.0,  999.0,  999.0,  999.0,  999.0,  999.0,  999.0,  999.0,  999.0,  999.0,  999.0,  999.0,  999.0,  999.0,  999.0,    0.0,  999.0,  999.0,  999.0,  999.0,    0.1,  999.0,   -0.2,    0.2,  999.0,   -0.0,  999.0,  999.0,  999.0,  999.0,  999.0,  999.0,  999.0,  999.0,  999.0,  999.0,  999.0,  999.0,  999.0,  999.0,  999.0,  999.0,  999.0,  999.0,  999.0,  999.0,  999.0
2014/11/03 21:00,  999.0,  999.0,  999.0,  999.0,    1.9,  999.0,  999.0,  999.0,  999.0,    1.0,  999.0,    7.8,   11.0,    4.2,  999.0,    5.9,    6.4,    6.3,   11.7,   14.0,  999.0,  999.0,  999.0,   17.9,  999.0,  999.0,  999.0,  999.0,  999.0,  999.0,  999.0,  999.0,  999.0,  999.0,  999.0,  999.0,  999.0,  999.0,  999.0,  999.0,  999.0,  999.0,  999.0,  999.0,  999.0,  999.0,  999.0,  999.0,  999.0,  999.0,  999.0,  999.0,   -0.0,  999.0,  999.0,  999.0,  999.0,    0.3,    0.3,  999.0,  999.0,    0.3,  999.0,  999.0,  999.0,  999.0,  999.0,  999.0,   -0.1,  999.0,  999.0,  999.0,  999.0,  999.0,  999.0,  999.0,  999.0,  999.0,  999.0,  999.0
2014/11/03 21:10,  999.0,   -0.5,  999.0,  999.0,  999.0,    1.9,    2.0,    0.4,   -0.2,  999.0,  999.0,  999.0,  999.0,  999.0,  999.0,  999.0,    5.3,    0.6,    1.7,    0.1,   10.6,    7.4,    0.0,   -0.3,   -0.1,    0.0,   -0.2,   -0.5,   -1.7,    0.0,    0.3,    0.2,   -0.2,  999.0,  999.0,  999.0,  999.0,  999.0,   -0.3,  999.0,  999.0,  999.0,   -0.2,  999.0,  999.0,  999.0,  999.0,  999.0,  999.0,    0.1,    0.1,  999.0,    0.3,    0.3,  999.0,   -0.0,    0.1,   -0.1,   -0.1,    0.2,   -0.0,  999.0,   -0.1,   -0.4,    0.1,   -0.1,  999.0,    0.3,  999.0,  999.0,  999.0,  999.0,  999.0,  999.0,  999.0,  999.0,  999.0,  999.0,  999.0,  999.0
2014/11/03 21:20,  999.0,   -0.4,    0.3,   -0.3,   -0.9,    0.3,    0.2,  999.0,   -0.9,    0.8,    0.5,  999.0,  999.0,    0.3,   -0.0,    0.0,    0.0,    0.1,    3.8,   -0.6,    5.2,  999.0,   -0.0,  999.0,   -0.2,  999.0,   -0.4,   -0.2,   -0.6,   -0.1,   -0.1,   -0.2,    0.1,    0.5,  999.0,  999.0,  999.0,  999.0,   -0.1,  999.0,  999.0,   -0.1,    0.3,  999.0,  999.0,  999.0,    0.2,   -0.1,  999.0,   -0.1,   -0.0,  999.0,    0.1,   -0.0,   -0.1,    0.2,    0.5,  999.0,    0.1,   -0.1,   -0.1,  999.0,   -0.1,  999.0,  999.0,  999.0,    0.1,  999.0,  999.0,  999.0,  999.0,  999.0,  999.0,  999.0,  999.0,  999.0,  999.0,  999.0,  999.0,  999.0
2014/11/03 21:30,  999.0,    0.9,    0.2,  999.0,  999.0,  999.0,  999.0,  999.0,  999.0,  999.0,  999.0,  999.0,  999.0,  999.0,   17.6,   15.7,  999.0,  999.0,  999.0,  999.0,  999.0,  999.0,  999.0,  999.0,  999.0,  999.0,  999.0,  999.0,  999.0,  999.0,  999.0,  999.0,  999.0,  999.0,  999.0,  999.0,  999.0,  999.0,  999.0,  999.0,   -0.3,   -0.0,  999.0,  999.0,  999.0,   -0.5,  999.0,  999.0,   -0.1,  999.0,    0.2,   -0.2,  999.0,    0.2,   -0.1,    0.3,    0.0,  999.0,    0.3,    0.0,    0.0,   -0.3,    0.1,  999.0,    0.0,    0.0,   -0.3,  999.0,   -0.4,   -0.3,  999.0,  999.0,  999.0,  999.0,  999.0,  999.0,  999.0,  999.0,  999.0,  999.0
2014/11/03 21:40,  999.0,  999.0,  999.0,  999.0,  999.0,  999.0,    2.0,    0.3,    3.3,  999.0,  999.0,    2.2,    2.5,    5.4,    7.6,   11.8,   14.3,   15.2,   13.3,   13.8,   15.5,   16.6,   19.0,   17.2,   21.1,   23.3,  999.0,  999.0,  999.0,  999.0,  999.0,  999.0,  999.0,  999.0,  999.0,  999.0,  999.0,  999.0,  999.0,  999.0,  999.0,  999.0,  999.0,  999.0,  999.0,  999.0,  999.0,    0.2,  999.0,  999.0,    0.0,  999.0,   -0.0,   -0.1,   -0.1,   -0.1,   -0.1,   -0.2,   -0.1,   -0.0,    0.1,    0.2,   -0.5,    0.3,   -0.4,  999.0,  999.0,  999.0,  999.0,  999.0,  999.0,  999.0,  999.0,  999.0,  999.0,  999.0,  999.0,  999.0,  999.0,  999.0
2014/11/03 21:50,  999.0,    0.6,    2.3,    4.4,    3.2,    0.6,    1.8,    2.5,    3.6,  999.0,    4.8,    5.7,    7.4,    8.4,    8.6,   10.6,   10.1,   12.5,   14.4,   14.7,   15.5,   17.0,   18.3,   19.4,   21.0,   22.3,   23.0,  999.0,  999.0,  999.0,  999.0,  999.0,  999.0,  999.0,  999.0,  999.0,  999.0,  999.0,  999.0,  999.0,  999.0,  999.0,  999.0,  999.0,  999.0,  999.0,  999.0,  999.0,  999.0,  999.0,  999.0,  999.0,  999.0,  999.0,    0.1,  999.0,  999.0,  999.0,  999.0,   -0.0,  999.0,  999.0,  999.0,  999.0,  999.0,  999.0,  999.0,  999.0,  999.0,  999.0,  999.0,  999.0,  999.0,  999.0,  999.0,  999.0,  999.0,  999.0,  999.0,  999.0
2014/11/03 22:00,  999.0,    0.3,    0.0,    0.8,   -0.4,   -1.4,    2.2,    1.5,    1.1,    2.2,    1.3,    5.8,    8.3,    8.7,    8.1,   11.1,   10.8,    9.9,   18.2,   18.2,   15.5,   15.2,  999.0,  999.0,  999.0,  999.0,  999.0,  999.0,  999.0,  999.0,  999.0,   -0.0,    0.1,   -0.1,  999.0,  999.0,  999.0,  999.0,  999.0,  999.0,  999.0,  999.0,  999.0,  999.0,    0.2,  999.0,  999.0,  999.0,  999.0,   -0.0,  999.0,  999.0,   -0.1,  999.0,   -0.2,   -0.1,    0.2,  999.0,  999.0,  999.0,  999.0,  999.0,   -0.1,  999.0,  999.0,  999.0,  999.0,  999.0,  999.0,  999.0,  999.0,  999.0,  999.0,  999.0,  999.0,  999.0,  999.0,  999.0,  999.0,  999.0
2014/11/03 22:10,  999.0,   -0.2,   -2.8,   -4.6,    2.6,    1.8,    3.1,    4.1,    3.9,    5.0,    4.5,    5.5,    7.6,    7.7,   12.7,   11.1,   12.5,   12.8,   16.3,   19.4,   15.2,   16.7,   19.2,  999.0,  999.0,  999.0,  999.0,  999.0,  999.0,  999.0,  999.0,  999.0,  999.0,  999.0,  999.0,  999.0,  999.0,  999.0,  999.0,  999.0,  999.0,  999.0,  999.0,  999.0,  999.0,  999.0,  999.0,  999.0,  999.0,  999.0,  999.0,  999.0,  999.0,  999.0,  999.0,  999.0,  999.0,  999.0,  999.0,  999.0,  999.0,  999.0,  999.0,  999.0,  999.0,  999.0,  999.0,  999.0,  999.0,  999.0,  999.0,  999.0,  999.0,  999.0,  999.0,  999.0,  999.0,  999.0,  999.0,  999.0
2014/11/03 22:20,  999.0,  999.0,   16.0,   19.9,   12.0,  999.0,    2.0,    6.2,    6.3,    9.9,   12.6,   17.1,   17.9,   21.0,   18.9,   22.7,   24.4,   18.6,   20.3,  999.0,  999.0,   10.3,   -0.0,   -0.1,   -0.2,   -0.1,   -0.1,   -0.3,   -0.2,    0.3,   -0.2,   -1.4,  999.0,  999.0,  999.0,  999.0,  999.0,  999.0,  999.0,  999.0,  999.0,  999.0,  999.0,  999.0,  999.0,  999.0,  999.0,  999.0,    0.0,  999.0,   -0.1,   -0.1,    0.2,   -0.2,   -0.2,  999.0,   -0.1,   -0.1,    0.3,  999.0,  999.0,    0.3,  999.0,  999.0,  999.0,  999.0,  999.0,  999.0,  999.0,  999.0,  999.0,  999.0,  999.0,    0.3,  999.0,  999.0,  999.0,  999.0,  999.0,  999.0
2014/11/03 22:30,  999.0,  999.0,  999.0,  999.0,  999.0,  999.0,  999.0,  999.0,  999.0,  999.0,   16.5,    9.3,    6.6,    7.8,    8.1,   -0.1,  999.0,  999.0,   10.6,    4.7,    8.0,    4.9,   -0.4,   -0.4,   -0.1,   -0.4,   -0.4,   -0.4,   -0.3,   -0.1,   -0.3,   -0.1,   -0.4,   -0.5,   -0.7,   -0.2,  999.0,   -0.1,   -0.1,   -0.1,   -0.4,   -0.3,    0.1,    0.1,   -0.3,   -0.3,    0.1,    0.1,    0.2,  999.0,   -0.1,    0.2,   -0.1,   -0.1,    0.1,    0.2,    0.1,    0.3,    0.2,    0.2,   -0.1,    0.1,    0.0,    0.0,    0.2,  999.0,    0.1,    0.2,    0.3,  999.0,  999.0,  999.0,  999.0,   -0.2,  999.0,  999.0,  999.0,  999.0,  999.0,  999.0
2014/11/03 22:40,  999.0,  999.0,  999.0,    0.2,    4.6,    3.7,  999.0,  999.0,  999.0,    5.8,    4.5,    4.4,    5.3,    3.9,    4.2,    4.4,    4.5,   12.5,    2.4,    7.6,    7.1,    2.4,    7.4,    7.8,   -0.5,   -0.3,   -0.1,    0.1,   -0.4,   -0.3,   -0.5,   -0.6,   -0.1,    6.1,   -0.4,  999.0,  999.0,  999.0,    0.2,    0.1,   -0.3,   -0.5,   -0.0,   -0.2,    0.2,   -0.0,   -0.1,   -0.1,   -0.1,   -0.2,    0.0,    0.0,   -0.0,    0.1,    0.1,    0.1,   -0.1,   -0.2,   -0.1,    0.2,  999.0,    0.1,   -0.2,   -0.1,   -0.0,    0.1,  999.0,    0.2,   -0.1,  999.0,  999.0,  999.0,  999.0,  999.0,  999.0,  999.0,  999.0,  999.0,  999.0,  999.0
2014/11/03 22:50,  999.0,  999.0,  999.0,    0.1,    0.1,   -0.1,   -0.1,   -0.1,   -0.1,   -0.1,   -0.1,   -0.0,   -0.1,   -0.1,    0.0,   -0.1,    0.0,    0.2,   -0.0,    0.3,   -0.1,   -0.1,   -0.5,   -0.9,    0.0,   -0.1,   -0.0,   -0.2,   -0.3,   -0.3,   -0.2,   -0.2,   -0.3,   -0.2,   -0.1,   -0.2,   -0.2,   -0.2,   -0.0,   -0.1,   -0.3,    0.2,   -0.1,   -0.1,    0.1,    0.1,   -0.0,    0.1,   -0.0,    0.0,   -0.0,    0.1,    0.1,   -0.0,   -0.0,   -0.2,   -0.1,    0.1,    0.0,    0.2,   -0.1,   -0.1,    0.0,    0.3,    0.1,   -0.3,   -0.1,   -0.1,   -0.1,   -0.2,   -0.1,  999.0,  999.0,  999.0,  999.0,  999.0,  999.0,  999.0,  999.0,  999.0
2014/11/03 23:00,  999.0,  999.0,  999.0,    0.1,    0.1,    0.1,  999.0,   -0.1,    0.0,   -0.0,   -0.2,   -0.2,    0.0,   -0.1,   -0.1,   -0.1,    0.0,    0.0,   -0.1,   -0.1,   -0.3,   -0.3,   -0.6,   -0.3,   -0.0,    0.0,    0.0,   -0.0,    0.0,   -0.1,    0.0,   -0.0,   -0.2,   -0.2,    0.0,   -0.0,    0.3,    0.0,    0.2,   -0.1,   -0.1,   -0.3,   -0.2,   -0.1,   -0.1,   -0.1,    0.0,   -0.0,   -0.1,   -0.1,    0.0,    0.1,   -0.0,   -0.0,    0.2,    0.0,    0.2,    0.0,    0.1,   -0.2,   -0.2,   -0.1,   -0.2,   -0.2,   -0.2,   -0.1,   -0.2,    0.1,    0.1,    0.0,  999.0,  999.0,  999.0,  999.0,  999.0,  999.0,  999.0,  999.0,  999.0,  999.0
2014/11/03 23:10,  999.0,  999.0,  999.0,   -0.2,    0.1,   -0.0,   -0.3,  999.0,    0.4,   -0.1,   -0.1,   -0.0,   -0.1,    0.1,    1.3,    1.1,    0.0,   -0.2,   -0.2,    0.1,   -0.1,   -0.1,   -0.2,   -0.2,    0.0,   -0.0,   -0.1,   -0.0,   -0.0,   -0.0,   -0.0,   -0.1,   -0.2,   -0.6,   -0.6,   -0.3,   -0.0,    0.2,   -0.0,   -0.1,   -0.1,   -0.1,    0.0,    0.2,    0.0,    0.0,    0.1,    0.0,   -0.1,   -0.0,    0.2,   -0.2,    0.1,    0.2,   -0.0,    0.0,   -0.2,   -0.1,   -0.1,   -0.1,   -0.1,   -0.2,    0.0,    0.2,    0.1,    0.3,    0.0,   -0.1,  999.0,  999.0,  999.0,  999.0,  999.0,  999.0,  999.0,  999.0,  999.0,  999.0,  999.0,  999.0
2014/11/03 23:20,  999.0,  999.0,    0.1,    0.1,   -0.1,    0.0,    0.1,   -0.2,   -0.1,    0.3,    0.4,    2.4,    2.3,    2.8,    2.5,   -0.3,    0.0,    5.3,    2.0,    2.2,    1.4,   -0.1,   -0.2,   -0.2,   -0.2,   -0.0,   -0.2,   -0.0,   -0.1,    0.1,    0.0,   -0.0,    0.1,    0.0,   -0.0,   -0.0,    0.1,   -0.1,   -0.0,    0.0,   -0.3,   -0.2,    0.1,    0.1,    0.1,    0.0,    0.0,    0.1,    0.1,    0.1,   -0.1,   -0.1,    0.1,    0.0,   -0.0,    0.1,   -0.0,    0.3,    0.0,   -0.1,   -0.2,   -0.3,   -0.3,   -0.1,   -0.2,   -0.1,    0.0,    0.0,   -0.1,   -0.3,   -0.3,  999.0,    0.2,   -0.2,  999.0,  999.0,  999.0,  999.0,  999.0,  999.0
2014/11/03 23:30,  999.0,  999.0,   -0.3,   -0.9,   -1.5,   -0.6,  999.0,    3.3,    0.7,    1.9,    3.0,    1.1,    4.3,    6.2,    5.4,    6.9,    3.5,    2.0,    9.1,    6.8,    8.8,    9.5,    9.5,    5.7,  999.0,    0.0,   -0.0,    0.1,   -0.0,   -0.0,   -0.1,   -0.3,    0.1,   -0.4,   -0.2,   -0.3,    0.0,   -0.1,   -0.1,   -0.2,   -0.2,   -0.2,  999.0,   -0.1,   -0.1,   -0.1,   -0.0,   -0.2,    0.0,   -0.1,   -0.1,    0.1,   -0.1,   -0.0,    0.1,    0.2,    0.4,    0.1,    0.0,   -0.2,    0.1,    0.1,    0.0,    0.1,   -0.1,    0.1,    0.0,  999.0,   -0.1,  999.0,   -0.4,  999.0,  999.0,   -0.3,  999.0,  999.0,  999.0,  999.0,  999.0,  999.0
2014/11/03 23:40,  999.0,  999.0,  999.0,    0.2,   -0.1,    0.1,   -0.1,    0.0,   -0.1,  999.0,    1.9,   -0.4,   -0.1,   -0.2,    0.2,   -0.0,    0.1,   -0.1,   -0.1,   -0.1,    0.0,   -0.1,   -0.4,   -0.2,   -0.0,    0.0,   -0.0,   -0.2,   -0.2,   -0.1,   -0.4,   -0.2,   -0.0,   -0.1,    0.1,    0.2,    0.1,   -0.0,   -0.0,    0.1,   -0.1,   -0.0,   -0.1,   -0.0,    0.1,   -0.1,   -0.0,   -0.1,   -0.1,   -0.0,    0.1,   -0.2,   -0.2,    0.0,    0.0,    0.1,    0.1,   -0.1,   -0.1,   -0.1,   -0.1,   -0.0,   -0.0,   -0.0,    0.0,   -0.0,   -0.1,    0.1,    0.3,    0.1,   -0.3,   -0.1,   -0.2,  999.0,  999.0,  999.0,  999.0,  999.0,  999.0,  999.0
2014/11/03 23:50,  999.0,  999.0,   -0.1,   -0.2,    0.5,   -0.3,  999.0,    0.4,    1.2,    0.3,    0.3,    0.1,   -0.7,    0.1,    0.1,   -0.0,    0.1,   -0.0,   -0.2,   -0.1,    0.0,   -0.0,    0.3,   -0.1,   -0.0,   -0.2,   -0.1,    0.0,    0.1,   -0.2,    0.1,    0.0,   -0.1,   -0.1,   -0.2,   -0.1,   -0.1,   -0.0,    0.0,   -0.1,   -0.1,   -0.0,    0.0,    0.0,    0.1,   -0.0,   -0.1,   -0.0,    0.1,    0.1,   -0.0,    0.0,    0.0,    0.1,    0.0,   -0.1,   -0.1,    0.1,   -0.0,   -0.1,   -0.0,    0.1,   -0.3,   -0.4,   -0.2,   -0.0,   -0.1,    0.3,    0.1,   -0.0,   -0.0,    0.1,   -0.0,  999.0,  999.0,  999.0,  999.0,  999.0,  999.0,  999.0
